CW7077 Weather Reports


time (UTC)temp
F
wind
direction
speed
knots
gust
knots
rain 1hr
in
rain 24hr
in
rain mn
in
humidity
%
barometer
mb
20260510225559 78 140 0.0 0.0 0.00 0.00 0.00 40 1015.9
20260510225500 79 142 0.0 0.0 0.00 0.00 0.00 42 1015.9
20260510225345 79 140 0.0 0.0 0.00 0.00 0.00 41 1015.9
20260510225246 79 140 0.0 0.0 0.00 0.00 0.00 40 1016.0
20260510225146 79 135 0.0 0.0 0.00 0.00 0.00 44 1016.0
20260510225044 79 135 0.0 0.0 0.00 0.00 0.00 43 1016.0
20260510224944 79 135 0.0 0.0 0.00 0.00 0.00 42 1016.0
20260510224844 79 135 0.0 0.0 0.00 0.00 0.00 42 1016.0
20260510224745 79 135 0.0 0.0 0.00 0.00 0.00 42 1016.0
20260510224708 79 135 0.0 0.0 0.00 0.00 0.00 42 1016.0
20260510224603 79 135 0.0 0.0 0.00 0.00 0.00 42 1015.2
20260510224540 79 134 0.0 0.0 0.00 0.00 0.00 42 1016.0
20260510224442 79 134 0.0 0.0 0.00 0.00 0.00 41 1016.0
20260510224342 79 130 0.0 0.0 0.00 0.00 0.00 41 1016.0
20260510224243 79 130 0.0 0.0 0.00 0.00 0.00 40 1015.9
20260510224145 79 130 0.0 0.0 0.00 0.00 0.00 39 1016.0
20260510224050 79 130 0.0 0.0 0.00 0.00 0.00 40 1016.0
20260510223950 79 130 0.0 0.0 0.00 0.00 0.00 39 1016.0
20260510223911 80 87 0.0 0.0 0.00 0.00 0.00 39 1016.0
20260510223750 80 87 0.0 0.0 0.00 0.00 0.00 40 1015.9
20260510223708 80 87 0.0 0.0 0.00 0.00 0.00 38 1016.0
20260510223540 80 219 0.0 0.0 0.00 0.00 0.00 41 1016.0
20260510223501 80 220 0.0 0.0 0.00 0.00 0.00 42 1015.9
20260510223344 80 178 0.0 0.0 0.00 0.00 0.00 40 1015.9
20260510223245 80 179 0.0 0.0 0.00 0.00 0.00 43 1015.9
20260510223205 80 179 0.0 0.0 0.00 0.00 0.00 42 1016.0
20260510223044 80 179 0.0 0.0 0.00 0.00 0.00 41 1016.0
20260510223004 80 179 0.0 0.0 0.00 0.00 0.00 41 1015.2
20260510222946 80 179 0.0 0.0 0.00 0.00 0.00 41 1016.0
20260510222846 80 179 0.0 0.0 0.00 0.00 0.00 41 1016.0
20260510222746 80 179 0.0 0.0 0.00 0.00 0.00 43 1015.9
20260510222652 80 179 0.0 0.0 0.00 0.00 0.00 42 1015.9
20260510222552 80 179 0.0 0.0 0.00 0.00 0.00 39 1015.9
20260510222454 80 179 0.0 0.0 0.00 0.00 0.00 37 1015.9
20260510222355 80 179 0.0 0.0 0.00 0.00 0.00 37 1015.9
20260510222256 81 179 0.0 0.0 0.00 0.00 0.00 39 1015.9
20260510222157 81 174 0.0 0.0 0.00 0.00 0.00 41 1015.9
20260510222042 81 174 0.0 0.0 0.00 0.00 0.00 37 1015.8
20260510221942 81 174 0.0 0.0 0.00 0.00 0.00 39 1015.9
20260510221844 81 174 0.0 0.0 0.00 0.00 0.00 39 1015.9
20260510221744 81 174 0.0 0.0 0.00 0.00 0.00 39 1015.8
20260510221642 81 174 0.0 0.0 0.00 0.00 0.00 38 1015.8
20260510221630 81 174 0.0 0.0 0.00 0.00 0.00 38 1015.1
20260510221602 81 174 0.0 0.0 0.00 0.00 0.00 38 1015.8
20260510221442 81 174 0.0 0.0 0.00 0.00 0.00 38 1015.8
20260510221347 81 174 0.0 0.0 0.00 0.00 0.00 36 1015.8
20260510221308 82 175 0.0 0.0 0.00 0.00 0.00 40 1015.8
20260510221148 82 106 0.0 0.0 0.00 0.00 0.00 38 1015.8
20260510221049 82 106 0.0 0.0 0.00 0.00 0.00 36 1015.8
20260510220949 82 106 0.0 0.0 0.00 0.00 0.00 36 1015.8
20260510220848 82 106 0.0 0.0 0.00 0.00 0.00 36 1015.8
20260510220809 82 106 0.0 0.0 0.00 0.00 0.00 40 1015.7
20260510220648 82 106 0.0 0.0 0.00 0.00 0.00 41 1015.7
20260510220552 83 105 0.0 0.0 0.00 0.00 0.00 41 1015.8
20260510220454 83 105 0.0 0.0 0.00 0.00 0.00 39 1015.8
20260510220354 83 105 0.0 0.0 0.00 0.00 0.00 39 1015.8
20260510220318 83 105 0.0 0.0 0.00 0.00 0.00 37 1015.8
20260510220223 83 105 0.0 0.0 0.00 0.00 0.00 37 1015.8
20260510215951 82 105 0.0 0.0 0.00 0.00 0.00 36 1015.8
20260510215854 82 105 0.0 0.0 0.00 0.00 0.00 36 1015.8
20260510215756 82 105 0.0 0.0 0.00 0.00 0.00 35 1015.8
20260510215656 82 105 0.0 0.0 0.00 0.00 0.00 35 1015.8
20260510215558 82 105 0.0 0.0 0.00 0.00 0.00 34 1015.9
20260510215459 82 108 0.0 0.0 0.00 0.00 0.00 34 1015.9
20260510215400 82 108 0.0 0.0 0.00 0.00 0.00 33 1015.9
20260510215306 82 111 0.0 0.0 0.00 0.00 0.00 33 1015.9
20260510215143 82 111 0.0 0.0 0.00 0.00 0.00 33 1015.8
20260510215043 82 270 0.0 0.0 0.00 0.00 0.00 33 1015.9
20260510214942 82 270 0.0 0.0 0.00 0.00 0.00 34 1015.8
20260510214843 82 270 0.0 0.0 0.00 0.00 0.00 37 1015.8
20260510214743 82 273 0.0 0.0 0.00 0.00 0.00 35 1015.8
20260510214644 82 273 0.0 0.0 0.00 0.00 0.00 35 1015.8
20260510214549 82 273 0.0 0.0 0.00 0.00 0.00 36 1015.8
20260510214512 81 273 0.0 0.0 0.00 0.00 0.00 35 1015.0
20260510214451 82 273 0.0 0.0 0.00 0.00 0.00 35 1015.8
20260510214352 82 116 0.0 0.0 0.00 0.00 0.00 36 1015.8
20260510214253 82 116 0.0 0.0 0.00 0.00 0.00 37 1015.8
20260510214153 82 116 0.0 0.0 0.00 0.00 0.00 36 1015.8
20260510214055 82 116 0.0 0.0 0.00 0.00 0.00 35 1015.8
20260510214015 82 116 0.0 0.0 0.00 0.00 0.00 34 1015.8
20260510213900 82 116 0.0 0.0 0.00 0.00 0.00 35 1015.9
20260510213800 82 141 0.0 0.0 0.00 0.00 0.00 37 1015.9
20260510213641 82 140 0.0 0.0 0.00 0.00 0.00 35 1015.8
20260510213541 82 317 0.0 0.0 0.00 0.00 0.00 35 1015.9
20260510213443 82 225 0.0 0.0 0.00 0.00 0.00 35 1015.8
20260510213403 82 225 0.0 0.0 0.00 0.00 0.00 35 1015.8
20260510213243 82 229 0.0 0.0 0.00 0.00 0.00 33 1015.8
20260510213207 82 229 0.0 0.0 0.00 0.00 0.00 33 1015.9
20260510213119 82 229 0.0 0.0 0.00 0.00 0.00 33 1015.1
20260510213106 82 159 0.0 0.0 0.00 0.00 0.00 33 1015.8
20260510212945 82 159 0.0 0.0 0.00 0.00 0.00 32 1015.8
20260510212846 82 159 0.0 0.0 0.00 0.00 0.00 32 1015.8
20260510212746 82 160 0.0 0.0 0.00 0.00 0.00 32 1015.8
20260510212646 83 160 0.0 0.0 0.00 0.00 0.00 35 1015.8
20260510212607 83 160 0.0 0.0 0.00 0.00 0.00 34 1015.8
20260510212505 83 159 0.0 0.0 0.00 0.00 0.00 36 1015.7
20260510212348 83 115 0.0 0.0 0.00 0.00 0.00 34 1015.8
20260510212250 83 115 0.0 0.0 0.00 0.00 0.00 34 1015.8
20260510212210 83 115 0.0 0.0 0.00 0.00 0.00 35 1015.8
20260510212049 82 115 0.0 0.0 0.00 0.00 0.00 36 1015.8
20260510211950 82 115 0.0 0.0 0.00 0.00 0.00 34 1015.8
20260510211851 82 117 0.0 0.0 0.00 0.00 0.00 34 1015.8
20260510211751 82 118 0.0 0.0 0.00 0.00 0.00 35 1015.8
20260510211657 82 118 0.0 0.0 0.00 0.00 0.00 34 1015.8
20260510211558 82 360 0.0 0.0 0.00 0.00 0.00 38 1015.8
20260510211529 82 360 0.0 0.0 0.00 0.00 0.00 37 1015.1
20260510211458 82 360 0.0 0.0 0.00 0.00 0.00 37 1015.8
20260510211358 82 360 0.0 0.0 0.00 0.00 0.00 35 1015.7
20260510211259 82 360 0.0 0.0 0.00 0.00 0.00 36 1015.8
20260510211159 82 140 0.0 0.0 0.00 0.00 0.00 36 1015.7
20260510211059 82 140 0.0 0.0 0.00 0.00 0.00 35 1015.8
20260510210943 82 155 0.0 0.0 0.00 0.00 0.00 34 1015.7
20260510210842 82 165 0.0 0.0 0.00 0.00 0.00 36 1015.7
20260510210743 82 165 0.0 0.0 0.00 0.00 0.00 35 1015.8
20260510210703 82 165 0.0 0.0 0.00 0.00 0.00 34 1015.7
20260510210541 82 168 0.0 0.0 0.00 0.00 0.00 35 1015.8
20260510210441 82 182 0.0 0.0 0.00 0.00 0.00 37 1015.8
20260510210345 82 175 0.0 0.0 0.00 0.00 0.00 36 1015.8
20260510210247 82 175 0.0 0.0 0.00 0.00 0.00 35 1015.7
20260510210214 82 175 0.0 0.0 0.00 0.00 0.00 35 1015.7
20260510210030 82 175 0.0 0.0 0.00 0.00 0.00 35 1015.1
20260510205941 82 144 0.0 0.0 0.00 0.00 0.00 35 1015.8
20260510205841 82 145 0.0 0.0 0.00 0.00 0.00 36 1015.8
20260510205801 82 145 0.0 0.0 0.00 0.00 0.00 35 1015.7
20260510205644 82 145 0.0 0.0 0.00 0.00 0.00 38 1015.8
20260510205545 82 145 0.0 0.0 0.00 0.00 0.00 36 1015.7
20260510205446 82 145 0.0 0.0 0.00 0.00 0.00 36 1015.8
20260510205345 82 146 0.0 0.0 0.00 0.00 0.00 35 1015.8
20260510205246 82 146 0.0 0.0 0.00 0.00 0.00 37 1015.8
20260510205208 82 146 0.0 0.0 0.00 0.00 0.00 35 1015.8
20260510205047 82 145 0.0 0.0 0.00 0.00 0.00 34 1015.9
20260510204952 82 145 0.0 0.0 0.00 0.00 0.00 33 1015.8
20260510204854 82 145 0.0 0.0 0.00 0.00 0.00 33 1015.8
20260510204753 82 138 0.0 0.0 0.00 0.00 0.00 34 1015.8
20260510204655 82 119 0.0 0.0 0.00 0.00 0.00 35 1015.8
20260510204556 82 148 0.0 0.0 0.00 0.00 0.00 36 1015.9
20260510204541 82 142 0.0 0.0 0.00 0.00 0.00 34 1015.2
20260510204455 82 146 0.0 0.0 0.00 0.00 0.00 34 1015.9
20260510204356 83 162 0.0 0.0 0.00 0.00 0.00 37 1015.8
20260510204259 83 178 0.0 0.0 0.00 0.00 0.00 35 1015.9
20260510204219 83 241 0.0 0.0 0.00 0.00 0.00 37 1015.8
20260510204059 83 242 0.0 0.0 0.00 0.00 0.00 38 1015.9
20260510204019 83 251 0.0 0.0 0.00 0.00 0.00 38 1015.8
20260510203858 82 274 0.0 0.0 0.00 0.00 0.00 37 1015.8
20260510203800 82 285 0.0 0.0 0.00 0.00 0.00 37 1015.8
20260510203701 82 285 0.0 0.0 0.00 0.00 0.00 38 1015.9
20260510203544 82 285 0.0 0.0 0.00 0.00 0.00 40 1015.9
20260510203445 82 286 0.0 0.0 0.00 0.00 0.00 38 1015.9
20260510203406 82 286 0.0 0.0 0.00 0.00 0.00 35 1015.8
20260510203244 82 215 0.0 0.0 0.00 0.00 0.00 35 1015.8
20260510203143 82 215 0.0 0.0 0.00 0.00 0.00 34 1015.9
20260510203044 83 155 0.0 0.0 0.00 0.00 0.00 35 1015.8
20260510203013 82 152 0.0 0.0 0.00 0.00 0.00 38 1015.2
20260510202945 83 76 0.0 0.0 0.00 0.00 0.00 38 1015.9
20260510202847 83 179 0.0 0.0 0.00 0.00 0.00 39 1016.0
20260510202748 83 179 0.0 0.0 0.00 0.00 0.00 38 1015.9
20260510202648 83 179 0.0 0.0 0.00 0.00 0.00 38 1015.9
20260510202547 83 179 0.0 0.0 0.00 0.00 0.00 36 1015.9
20260510202446 83 138 0.0 0.0 0.00 0.00 0.00 37 1015.9
20260510202346 83 331 0.0 0.0 0.00 0.00 0.00 35 1015.9
20260510202246 83 331 0.0 0.0 0.00 0.00 0.00 35 1015.8
20260510202151 83 331 0.0 0.0 0.00 0.00 0.00 34 1015.9
20260510202052 83 331 0.0 0.0 0.00 0.00 0.00 35 1015.9
20260510201953 83 331 0.0 0.0 0.00 0.00 0.00 35 1015.9
20260510201854 82 331 0.0 0.0 0.00 0.00 0.00 34 1016.0
20260510201814 82 333 0.0 0.0 0.00 0.00 0.00 35 1016.0
20260510201652 83 334 0.0 0.0 0.00 0.00 0.00 34 1016.0
20260510201553 83 334 0.0 0.0 0.00 0.00 0.00 36 1016.0
20260510201515 82 340 0.0 0.0 0.00 0.00 0.00 37 1015.3
20260510201458 83 340 0.0 0.0 0.00 0.00 0.00 34 1016.0
20260510201359 83 325 0.0 0.0 0.00 0.00 0.00 35 1016.0
20260510201259 82 338 0.0 0.0 0.00 0.00 0.00 36 1016.0
20260510201158 82 331 0.0 0.0 0.00 0.00 0.00 35 1016.0
20260510201119 82 331 0.0 0.0 0.00 0.00 0.00 34 1016.0
20260510200956 82 294 0.0 0.0 0.00 0.00 0.00 36 1016.0
20260510200857 82 290 0.0 0.0 0.00 0.00 0.00 35 1016.0
20260510200742 82 287 0.0 0.0 0.00 0.00 0.00 35 1016.0
20260510200643 82 287 0.0 0.0 0.00 0.00 0.00 34 1016.1
20260510200544 82 287 0.0 0.0 0.00 0.00 0.00 34 1016.1
20260510200445 82 287 0.0 0.0 0.00 0.00 0.00 35 1016.0
20260510200346 82 286 0.0 0.0 0.00 0.00 0.00 35 1016.1
20260510200306 82 284 0.0 0.0 0.00 0.00 0.00 34 1016.2
20260510200216 82 284 0.0 0.0 0.00 0.00 0.00 34 1016.1
20260510195944 82 284 0.0 0.0 0.00 0.00 0.00 34 1016.2
20260510195845 82 284 0.0 0.0 0.00 0.00 0.00 36 1016.2
20260510195746 82 189 0.0 0.0 0.00 0.00 0.00 34 1016.2
20260510195647 82 189 0.0 0.0 0.00 0.00 0.00 34 1016.2
20260510195547 82 189 0.0 0.0 0.00 0.00 0.00 34 1016.2
20260510195512 82 189 0.0 0.0 0.00 0.00 0.00 34 1016.2
20260510195351 82 192 0.0 0.0 0.00 0.00 0.00 36 1016.3
20260510195250 81 194 0.0 0.0 0.00 0.00 0.00 34 1016.2
20260510195150 81 194 0.0 0.0 0.00 0.00 0.00 35 1016.2
20260510195109 81 194 0.0 0.0 0.00 0.00 0.00 36 1016.2
20260510194946 81 197 0.0 0.0 0.00 0.00 0.00 35 1016.2
20260510194847 82 198 0.0 0.0 0.00 0.00 0.00 34 1016.2
20260510194749 82 151 0.0 0.0 0.00 0.00 0.00 33 1016.3
20260510194713 82 144 0.0 0.0 0.00 0.00 0.00 36 1016.3
20260510194552 82 148 0.0 0.0 0.00 0.00 0.00 35 1016.3
20260510194542 81 148 0.0 0.0 0.00 0.00 0.00 35 1015.6
20260510194453 82 92 0.0 0.0 0.00 0.00 0.00 35 1016.3
20260510194354 82 101 0.0 0.0 0.00 0.00 0.00 34 1016.3
20260510194254 82 159 0.0 0.0 0.00 0.00 0.00 37 1016.3
20260510194154 82 162 0.0 0.0 0.00 0.00 0.00 37 1016.2
20260510194040 82 162 0.0 0.0 0.00 0.00 0.00 36 1016.2
20260510194000 82 162 0.0 0.0 0.00 0.00 0.00 35 1016.1
20260510193900 82 162 0.0 0.0 0.00 0.00 0.00 37 1016.1
20260510193740 82 162 0.0 0.0 0.00 0.00 0.00 35 1016.1
20260510193641 82 163 0.0 0.0 0.00 0.00 0.00 36 1016.1
20260510193542 82 160 0.0 0.0 0.00 0.00 0.00 39 1016.1
20260510193443 82 160 0.0 0.0 0.00 0.00 0.00 39 1016.1
20260510193348 82 160 0.0 0.0 0.00 0.00 0.00 39 1016.2
20260510193249 82 146 0.0 0.0 0.00 0.00 0.00 37 1016.2
20260510193148 82 145 0.0 0.0 0.00 0.00 0.00 36 1016.2
20260510193108 82 101 0.0 0.0 0.00 0.00 0.00 38 1015.5
20260510193049 82 35 0.0 0.0 0.00 0.00 0.00 38 1016.2
20260510192948 82 340 0.0 0.0 0.00 0.00 0.00 36 1016.2
20260510192849 82 319 0.0 0.0 0.00 0.00 0.00 35 1016.2
20260510192755 82 88 0.0 0.0 0.00 0.00 0.00 37 1016.2
20260510192655 82 98 0.0 0.0 0.00 0.00 0.00 36 1016.2
20260510192556 82 360 0.0 0.0 0.00 0.00 0.00 35 1016.2
20260510192519 82 360 0.0 0.0 0.00 0.00 0.00 34 1016.3
20260510192358 82 336 0.0 0.0 0.00 0.00 0.00 34 1016.3
20260510192259 82 360 0.0 0.0 0.00 0.00 0.00 37 1016.3
20260510192220 82 135 0.0 0.0 0.00 0.00 0.00 38 1016.3
20260510192043 82 135 0.0 0.0 0.00 0.00 0.00 35 1016.3
20260510191943 82 138 0.0 0.0 0.00 0.00 0.00 34 1016.3
20260510191902 82 138 0.0 0.0 0.00 0.00 0.00 34 1016.3
20260510191741 82 138 0.0 0.0 0.00 0.00 0.00 34 1016.3
20260510191642 82 122 0.0 0.0 0.00 0.00 0.00 38 1016.3
20260510191607 81 157 0.0 0.0 0.00 0.00 0.00 38 1015.6
20260510191543 82 171 0.0 0.0 0.00 0.00 0.00 36 1016.3
20260510191505 82 199 0.0 0.0 0.00 0.00 0.00 37 1016.3
20260510191345 82 268 0.0 0.0 0.00 0.00 0.00 35 1016.3
20260510191308 82 309 0.0 0.0 0.00 0.00 0.00 35 1016.3
20260510191147 81 326 0.0 0.0 0.00 0.00 0.00 37 1016.3
20260510191048 81 306 0.0 0.0 0.00 0.00 0.00 37 1016.4
20260510190947 81 9 0.0 0.0 0.00 0.00 0.00 37 1016.4
20260510190848 81 337 0.0 0.0 0.00 0.00 0.00 37 1016.4
20260510190748 81 319 0.0 0.0 0.00 0.00 0.00 36 1016.4
20260510190648 81 197 0.0 0.0 0.00 0.00 0.00 37 1016.4
20260510190553 81 197 0.0 0.0 0.00 0.00 0.00 37 1016.4
20260510190453 81 197 0.0 0.0 0.00 0.00 0.00 35 1016.4
20260510190354 81 194 0.0 0.0 0.00 0.00 0.00 36 1016.4
20260510190255 81 129 0.0 0.0 0.00 0.00 0.00 36 1016.4
20260510190222 81 129 0.0 0.0 0.00 0.00 0.00 36 1016.4
20260510190018 81 74 0.0 0.0 0.00 0.00 0.00 36 1015.7
20260510185954 81 96 0.0 0.0 0.00 0.00 0.00 36 1016.4
20260510185855 81 96 0.0 0.0 0.00 0.00 0.00 38 1016.4
20260510185757 81 186 0.0 0.0 0.00 0.00 0.00 37 1016.4
20260510185657 81 184 0.0 0.0 0.00 0.00 0.00 38 1016.4
20260510185618 81 182 0.0 0.0 0.00 0.00 0.00 38 1016.5
20260510185458 81 182 0.0 0.0 0.00 0.00 0.00 39 1016.5
20260510185359 81 182 0.0 0.0 0.00 0.00 0.00 39 1016.4
20260510185244 81 182 0.0 0.0 0.00 0.00 0.00 39 1016.5
20260510185141 81 182 0.0 0.0 0.00 0.00 0.00 37 1016.5
20260510185042 81 175 0.0 0.0 0.00 0.00 0.00 40 1016.4
20260510184941 81 117 0.0 0.0 0.00 0.00 0.00 38 1016.5
20260510184841 81 80 0.0 0.0 0.00 0.00 0.00 39 1016.5
20260510184759 81 242 0.0 0.0 0.00 0.00 0.00 39 1016.5
20260510184658 81 246 0.0 0.0 0.00 0.00 0.00 37 1016.5
20260510184543 81 246 0.0 0.0 0.00 0.00 0.00 38 1016.5
20260510184526 80 240 0.0 0.0 0.00 0.00 0.00 38 1015.8
20260510184442 81 17 0.0 0.0 0.00 0.00 0.00 37 1016.5
20260510184343 81 16 0.0 0.0 0.00 0.00 0.00 36 1016.6
20260510184302 81 16 0.0 0.0 0.00 0.00 0.00 36 1016.6
20260510184142 81 19 0.0 0.0 0.00 0.00 0.00 37 1016.6
20260510184043 81 329 0.0 0.0 0.00 0.00 0.00 36 1016.6
20260510183943 81 325 0.0 0.0 0.00 0.00 0.00 38 1016.5
20260510183846 81 298 0.0 0.0 0.00 0.00 0.00 39 1016.5
20260510183745 80 294 0.0 0.0 0.00 0.00 0.00 37 1016.5
20260510183645 80 293 0.0 0.0 0.00 0.00 0.00 37 1016.5
20260510183605 80 134 0.0 0.0 0.00 0.00 0.00 39 1016.5
20260510183445 80 136 0.0 0.0 0.00 0.00 0.00 40 1016.6
20260510183406 80 195 0.0 0.0 0.00 0.00 0.00 41 1016.6
20260510183245 80 195 0.0 0.0 0.00 0.00 0.00 43 1016.5
20260510183143 80 225 0.0 0.0 0.00 0.00 0.00 36 1016.6
20260510183111 80 197 0.0 0.0 0.00 0.00 0.00 38 1015.9
20260510183047 80 146 0.0 0.0 0.00 0.00 0.00 35 1016.5
20260510182948 80 180 0.0 0.0 0.00 0.00 0.00 38 1016.6
20260510182849 80 186 0.0 0.0 0.00 0.00 0.00 35 1016.6
20260510182810 80 113 0.0 0.0 0.00 0.00 0.00 36 1016.6
20260510182648 80 113 0.0 0.0 0.00 0.00 0.00 36 1016.6
20260510182549 80 5 0.0 0.0 0.00 0.00 0.00 39 1016.7
20260510182450 80 5 0.0 0.0 0.00 0.00 0.00 35 1016.7
20260510182355 80 5 0.0 0.0 0.00 0.00 0.00 35 1016.6
20260510182256 80 5 0.0 0.0 0.00 0.00 0.00 35 1016.6
20260510182157 80 11 0.0 0.0 0.00 0.00 0.00 35 1016.6
20260510182057 80 11 0.0 0.0 0.00 0.00 0.00 35 1016.6
20260510181957 80 5 0.0 0.0 0.00 0.00 0.00 35 1016.6
20260510181857 81 5 0.0 0.0 0.00 0.00 0.00 36 1016.6
20260510181818 81 5 0.0 0.0 0.00 0.00 0.00 37 1016.6
20260510181659 81 360 0.0 0.0 0.00 0.00 0.00 35 1016.6
20260510181600 81 360 0.0 0.0 0.00 0.00 0.00 38 1016.6
20260510181546 80 355 0.0 0.0 0.00 0.00 0.00 38 1016.0
20260510181500 81 350 0.0 0.0 0.00 0.00 0.00 37 1016.6
20260510181340 81 350 0.0 0.0 0.00 0.00 0.00 36 1016.6
20260510181241 81 349 0.0 0.0 0.00 0.00 0.00 35 1016.6
20260510181142 81 348 0.0 0.0 0.00 0.00 0.00 36 1016.6
20260510181046 81 345 0.0 0.0 0.00 0.00 0.00 36 1016.6
20260510180947 81 342 0.0 0.0 0.00 0.00 0.00 36 1016.6
20260510180847 81 340 0.0 0.0 0.00 0.00 0.00 36 1016.7
20260510180810 81 333 0.0 0.0 0.00 0.00 0.00 41 1016.7
20260510180648 81 333 0.0 0.0 0.00 0.00 0.00 41 1016.7
20260510180549 80 335 0.0 0.0 0.00 0.00 0.00 41 1016.7
20260510180449 81 335 0.0 0.0 0.00 0.00 0.00 40 1016.7
20260510180351 81 335 0.0 0.0 0.00 0.00 0.00 38 1016.7
20260510180251 81 315 0.0 0.0 0.00 0.00 0.00 38 1016.7
20260510180218 81 315 0.0 0.0 0.00 0.00 0.00 38 1016.7
20260510180010 80 346 0.0 0.0 0.00 0.00 0.00 38 1016.1
20260510175943 81 344 0.0 0.0 0.00 0.00 0.00 37 1016.7
20260510175843 80 325 0.0 0.0 0.00 0.00 0.00 38 1016.7
20260510175743 80 325 0.0 0.0 0.00 0.00 0.00 39 1016.7
20260510175647 80 325 0.0 0.0 0.00 0.00 0.00 39 1016.7
20260510175550 80 325 0.0 0.0 0.00 0.00 0.00 35 1016.7
20260510175512 80 325 0.0 0.0 0.00 0.00 0.00 35 1016.8
20260510175352 80 325 0.0 0.0 0.00 0.00 0.00 40 1016.9
20260510175313 80 324 0.0 0.0 0.00 0.00 0.00 39 1016.8
20260510175151 80 323 0.0 0.0 0.00 0.00 0.00 36 1016.9
20260510175112 80 310 0.0 0.0 0.00 0.00 0.00 40 1016.8
20260510174952 80 334 0.0 0.0 0.00 0.00 0.00 38 1016.9
20260510174855 80 360 0.0 0.0 0.00 0.00 0.00 36 1016.9
20260510174754 80 360 0.0 0.0 0.00 0.00 0.00 37 1016.9
20260510174654 80 360 0.0 0.0 0.00 0.00 0.00 36 1017.0
20260510174554 80 360 0.0 0.0 0.00 0.00 0.00 38 1017.0
20260510174535 80 355 0.0 0.0 0.00 0.00 0.00 38 1016.4
20260510174455 80 355 0.0 0.0 0.00 0.00 0.00 39 1017.0
20260510174416 80 355 0.0 0.0 0.00 0.00 0.00 42 1017.0
20260510174314 80 355 0.0 0.0 0.00 0.00 0.00 37 1017.0
20260510174214 80 355 0.0 0.0 0.00 0.00 0.00 37 1016.9
20260510174058 80 11 0.0 0.0 0.00 0.00 0.00 37 1017.0
20260510173959 80 295 0.0 0.0 0.00 0.00 0.00 38 1017.0
20260510173858 80 296 0.0 0.0 0.00 0.00 0.00 37 1017.0
20260510173759 80 223 0.0 0.0 0.00 0.00 0.00 36 1017.0
20260510173658 80 182 0.0 0.0 0.00 0.00 0.00 38 1017.0
20260510173558 79 234 0.0 0.0 0.00 0.00 0.00 42 1017.0
20260510173458 79 233 0.0 0.0 0.00 0.00 0.00 39 1017.0
20260510173401 79 314 0.0 0.0 0.00 0.00 0.00 42 1017.0
20260510173322 79 235 0.0 0.0 0.00 0.00 0.00 42 1017.0
20260510173200 79 235 0.0 0.0 0.00 0.00 0.00 39 1017.0
20260510173100 79 235 0.0 0.0 0.00 0.00 0.00 39 1017.0
20260510173042 79 235 0.0 0.0 0.00 0.00 0.00 39 1016.4
20260510173019 79 235 0.0 0.0 0.00 0.00 0.00 38 1017.1
20260510172858 79 234 0.0 0.0 0.00 0.00 0.00 37 1017.1
20260510172758 79 198 0.0 0.0 0.00 0.00 0.00 41 1017.1
20260510172643 79 81 0.0 0.0 0.00 0.00 0.00 37 1017.1
20260510172543 79 81 0.0 0.0 0.00 0.00 0.00 36 1017.2
20260510172504 79 81 0.0 0.0 0.00 0.00 0.00 36 1017.2
20260510172343 79 81 0.0 0.0 0.00 0.00 0.00 36 1017.3
20260510172243 79 173 0.0 0.0 0.00 0.00 0.00 37 1017.2
20260510172144 79 173 0.0 0.0 0.00 0.00 0.00 36 1017.2
20260510172043 79 173 0.0 0.0 0.00 0.00 0.00 38 1017.3
20260510171948 79 173 0.0 0.0 0.00 0.00 0.00 36 1017.3
20260510171908 79 173 0.0 0.0 0.00 0.00 0.00 36 1017.3
20260510171807 79 34 0.0 0.0 0.00 0.00 0.00 38 1017.3
20260510171647 79 34 0.0 0.0 0.00 0.00 0.00 36 1017.2
20260510171548 79 34 0.0 0.0 0.00 0.00 0.00 37 1017.2
20260510171512 79 36 0.0 0.0 0.00 0.00 0.00 39 1016.7
20260510171450 79 55 0.0 0.0 0.00 0.00 0.00 39 1017.3
20260510171351 79 5 0.0 0.0 0.00 0.00 0.00 36 1017.2
20260510171250 79 360 0.0 0.0 0.00 0.00 0.00 36 1017.2
20260510171154 79 349 0.0 0.0 0.00 0.00 0.00 38 1017.2
20260510171114 79 355 0.0 0.0 0.00 0.00 0.00 37 1017.2
20260510170954 79 360 0.0 0.0 0.00 0.00 0.00 40 1017.2
20260510170855 79 5 0.0 0.0 0.00 0.00 0.00 38 1017.2
20260510170756 79 348 0.0 0.0 0.00 0.00 0.00 39 1017.2
20260510170658 79 346 0.0 0.0 0.00 0.00 0.00 38 1017.3
20260510170543 79 11 0.0 0.0 0.00 0.00 0.00 42 1017.3
20260510170504 79 319 0.0 0.0 0.00 0.00 0.00 39 1017.3
20260510170344 79 317 0.0 0.0 0.00 0.00 0.00 40 1017.4
20260510170309 79 317 0.0 0.0 0.00 0.00 0.00 39 1017.4
20260510170239 79 5 0.0 0.0 0.00 0.00 0.00 40 1017.4
20260510165945 79 35 0.0 0.0 0.00 0.00 0.00 39 1017.4
20260510165850 79 33 0.0 0.0 0.00 0.00 0.00 37 1017.5
20260510165751 79 355 0.0 0.0 0.00 0.00 0.00 38 1017.4
20260510165648 79 312 0.0 0.0 0.00 0.00 0.00 39 1017.5
20260510165609 79 350 0.0 0.0 0.00 0.00 0.00 36 1017.5
20260510165508 79 350 0.0 0.0 0.00 0.00 0.00 36 1017.5
20260510165347 79 342 0.0 0.0 0.00 0.00 0.00 38 1017.4
20260510165247 79 305 0.0 0.0 0.00 0.00 0.00 41 1017.4
20260510165207 79 292 0.0 0.0 0.00 0.00 0.00 41 1017.3
20260510165051 78 303 0.0 0.0 0.00 0.00 0.00 39 1017.4
20260510164952 78 327 0.0 0.0 0.00 0.00 0.00 39 1017.3
20260510164853 78 348 0.0 0.0 0.00 0.00 0.00 39 1017.3
20260510164754 78 300 0.0 0.0 0.00 0.00 0.00 39 1017.3
20260510164652 78 322 0.0 0.0 0.00 0.00 0.00 41 1017.3
20260510164552 78 164 0.0 0.0 0.00 0.00 0.00 40 1017.3
20260510164542 78 164 0.0 0.0 0.00 0.00 0.00 42 1016.7
20260510164452 78 164 0.0 0.0 0.00 0.00 0.00 39 1017.3
20260510164356 78 217 0.0 0.0 0.00 0.00 0.00 39 1017.4
20260510164257 78 134 0.0 0.0 0.00 0.00 0.00 38 1017.3
20260510164157 78 134 0.0 0.0 0.00 0.00 0.00 37 1017.3
20260510164058 78 134 0.0 0.0 0.00 0.00 0.00 37 1017.4
20260510163959 78 134 0.0 0.0 0.00 0.00 0.00 39 1017.4
20260510163858 78 195 0.0 0.0 0.00 0.00 0.00 37 1017.4
20260510163803 78 322 0.0 0.0 0.00 0.00 0.00 37 1017.3
20260510163643 78 308 0.0 0.0 0.00 0.00 0.00 37 1017.3
20260510163544 78 308 0.0 0.0 0.00 0.00 0.00 37 1017.3
20260510163444 78 313 0.0 0.0 0.00 0.00 0.00 38 1017.4
20260510163344 78 313 0.0 0.0 0.00 0.00 0.00 37 1017.3
20260510163242 78 313 0.0 0.0 0.00 0.00 0.00 37 1017.4
20260510163142 78 325 0.0 0.0 0.00 0.00 0.00 37 1017.3
20260510163103 78 313 0.0 0.0 0.00 0.00 0.00 38 1017.4
20260510163006 77 308 0.0 0.0 0.00 0.00 0.00 41 1016.7
20260510162946 78 342 0.0 0.0 0.00 0.00 0.00 41 1017.3
20260510162846 78 5 0.0 0.0 0.00 0.00 0.00 39 1017.3
20260510162808 78 355 0.0 0.0 0.00 0.00 0.00 39 1017.4
20260510162647 78 42 0.0 0.0 0.00 0.00 0.00 40 1017.4
20260510162548 78 24 0.0 0.0 0.00 0.00 0.00 39 1017.4
20260510162448 78 27 0.0 0.0 0.00 0.00 0.00 38 1017.4
20260510162409 78 28 0.0 0.0 0.00 0.00 0.00 35 1017.4
20260510162248 78 30 0.0 0.0 0.00 0.00 0.00 38 1017.5
20260510162213 77 311 0.0 0.0 0.00 0.00 0.00 38 1017.5
20260510162053 77 312 0.0 0.0 0.00 0.00 0.00 37 1017.5
20260510161952 77 286 0.0 0.0 0.00 0.00 0.00 41 1017.5
20260510161854 77 298 0.0 0.0 0.00 0.01 0.00 40 1017.5
20260510161755 77 292 0.0 0.0 0.00 0.01 0.00 40 1017.5
20260510161655 77 27 0.0 0.0 0.00 0.01 0.00 39 1017.5
20260510161614 77 27 0.0 0.0 0.00 0.01 0.00 39 1016.9
20260510161557 78 27 0.0 0.0 0.00 0.01 0.00 39 1017.5
20260510161443 78 24 0.0 0.0 0.00 0.01 0.00 38 1017.6
20260510161344 78 16 0.0 0.0 0.00 0.01 0.00 40 1017.6
20260510161243 78 13 0.0 0.0 0.00 0.01 0.00 39 1017.5
20260510161144 78 329 0.0 0.0 0.00 0.01 0.00 45 1017.6
20260510161105 77 350 0.0 0.0 0.00 0.01 0.00 43 1017.6
20260510161005 77 355 0.0 0.0 0.00 0.01 0.00 43 1017.6
20260510160843 77 330 0.0 0.0 0.00 0.01 0.00 45 1017.5
20260510160741 77 36 0.0 0.0 0.00 0.01 0.00 45 1017.5
20260510160646 77 57 0.0 0.0 0.00 0.01 0.00 43 1017.5
20260510160548 77 19 0.0 0.0 0.00 0.01 0.00 48 1017.5
20260510160450 77 22 0.0 0.0 0.00 0.01 0.00 46 1017.5
20260510160351 77 22 0.0 0.0 0.00 0.01 0.00 45 1017.5
20260510160312 77 22 0.0 0.0 0.00 0.01 0.00 44 1017.5
20260510160223 77 22 0.0 0.0 0.00 0.01 0.00 44 1017.5
20260510155949 77 20 0.0 0.0 0.00 0.01 0.00 46 1017.5
20260510155849 77 9 0.0 0.0 0.00 0.01 0.00 45 1017.5
20260510155750 77 9 0.0 0.0 0.00 0.01 0.00 46 1017.5
20260510155650 77 327 0.0 0.0 0.00 0.01 0.00 43 1017.5
20260510155552 77 45 0.0 0.0 0.00 0.01 0.00 44 1017.5
20260510155454 77 350 0.0 0.0 0.00 0.01 0.00 43 1017.5
20260510155400 77 333 0.0 0.0 0.00 0.01 0.00 42 1017.5
20260510155242 77 11 0.0 0.0 0.00 0.01 0.00 45 1017.5
20260510155141 77 351 0.0 0.0 0.00 0.01 0.00 46 1017.6
20260510155041 77 344 0.0 0.0 0.00 0.01 0.00 45 1017.5
20260510154942 77 340 0.0 0.0 0.00 0.01 0.00 46 1017.5
20260510154842 77 360 0.0 0.0 0.00 0.01 0.00 48 1017.5
20260510154746 77 360 0.0 0.0 0.00 0.01 0.00 46 1017.5
20260510154648 77 15 0.0 0.0 0.00 0.01 0.00 48 1017.5
20260510154601 76 21 0.0 0.0 0.00 0.01 0.00 48 1016.9
20260510154547 76 5 0.0 0.0 0.00 0.01 0.00 50 1017.5
20260510154448 76 344 0.0 0.0 0.00 0.01 0.00 47 1017.5
20260510154350 76 159 0.0 0.0 0.00 0.01 0.00 47 1017.5
20260510154252 76 159 0.0 0.0 0.00 0.01 0.00 46 1017.5
20260510154153 76 5 0.0 0.0 0.00 0.01 0.00 48 1017.5
20260510154119 76 349 0.0 0.0 0.00 0.01 0.00 51 1017.6
20260510153959 76 348 0.0 0.0 0.00 0.01 0.00 49 1017.5
20260510153859 76 348 0.0 0.0 0.00 0.01 0.00 50 1017.5
20260510153741 76 340 0.0 0.0 0.00 0.01 0.00 49 1017.4
20260510153642 76 342 0.0 0.0 0.00 0.01 0.00 52 1017.4
20260510153543 76 337 0.0 0.0 0.00 0.01 0.00 49 1017.4
20260510153441 76 333 0.0 0.0 0.00 0.01 0.00 49 1017.4
20260510153346 76 333 0.0 0.0 0.00 0.01 0.00 50 1017.5
20260510153247 76 333 0.0 0.0 0.00 0.01 0.00 53 1017.5
20260510153148 76 333 0.0 0.0 0.00 0.01 0.00 50 1017.4
20260510153049 76 333 0.0 0.0 0.00 0.01 0.00 50 1017.4
20260510153013 76 360 0.0 0.0 0.00 0.01 0.00 51 1016.9
20260510152949 76 333 0.0 0.0 0.00 0.01 0.00 51 1017.5
20260510152848 76 335 0.0 0.0 0.00 0.01 0.00 49 1017.5
20260510152746 76 329 0.0 0.0 0.00 0.01 0.00 50 1017.5
20260510152650 76 342 0.0 0.0 0.00 0.01 0.00 52 1017.5
20260510152549 76 29 0.0 0.0 0.00 0.01 0.00 54 1017.5
20260510152449 76 307 0.0 0.0 0.00 0.01 0.00 50 1017.6
20260510152409 76 344 0.0 0.0 0.00 0.01 0.00 49 1017.6
20260510152247 76 5 0.0 0.0 0.00 0.01 0.00 49 1017.6
20260510152148 76 16 0.0 0.0 0.00 0.01 0.00 51 1017.7
20260510152047 76 9 0.0 0.0 0.00 0.01 0.00 48 1017.7
20260510151949 76 24 0.0 0.0 0.00 0.01 0.00 48 1017.7
20260510151849 76 360 0.0 0.0 0.00 0.01 0.00 49 1017.7
20260510151748 76 5 0.0 0.0 0.00 0.01 0.00 51 1017.6
20260510151706 76 5 0.0 0.0 0.00 0.01 0.00 51 1017.7
20260510151546 76 17 0.0 0.0 0.00 0.01 0.00 50 1017.7
20260510151519 76 360 0.0 0.0 0.00 0.01 0.00 50 1017.1
20260510151446 76 310 0.0 0.0 0.00 0.01 0.00 50 1017.7
20260510151347 76 342 0.0 0.0 0.00 0.01 0.00 50 1017.7
20260510151252 76 332 0.0 0.0 0.00 0.01 0.00 52 1017.7
20260510151153 76 317 0.0 0.0 0.00 0.01 0.00 52 1017.7
20260510151054 76 342 0.0 0.0 0.00 0.01 0.00 55 1017.6
20260510151015 76 360 0.0 0.0 0.00 0.01 0.00 53 1017.7
20260510150914 76 349 0.0 0.0 0.00 0.01 0.00 56 1017.7
20260510150753 76 338 0.0 0.0 0.00 0.01 0.00 55 1017.6
20260510150711 76 345 0.0 0.0 0.00 0.01 0.00 53 1017.7
20260510150551 76 339 0.0 0.0 0.00 0.01 0.00 55 1017.7
20260510150456 76 338 0.0 0.0 0.00 0.01 0.00 54 1017.7
20260510150357 76 340 0.0 0.0 0.00 0.01 0.00 50 1017.7
20260510150301 76 346 0.0 0.0 0.00 0.01 0.00 50 1017.7
20260510150229 76 346 0.0 0.0 0.00 0.01 0.00 50 1017.7
20260510150016 76 336 0.0 0.0 0.00 0.01 0.00 50 1017.8
20260510145855 76 355 0.0 0.0 0.00 0.01 0.00 56 1017.8
20260510145819 76 355 0.0 0.0 0.00 0.01 0.00 57 1017.9
20260510145659 76 360 0.0 0.0 0.00 0.01 0.00 58 1017.9
20260510145558 76 360 0.0 0.0 0.00 0.01 0.00 58 1017.9
20260510145459 75 360 0.0 0.0 0.00 0.01 0.00 62 1017.9
20260510145400 75 360 0.0 0.0 0.00 0.01 0.00 62 1017.8
20260510145320 75 360 0.0 0.0 0.00 0.01 0.00 61 1017.8
20260510145219 75 360 0.0 0.0 0.00 0.01 0.00 62 1017.9
20260510145057 75 360 0.0 0.0 0.00 0.01 0.00 63 1017.9
20260510145000 75 360 0.0 0.0 0.00 0.01 0.00 62 1017.8
20260510144901 75 360 0.0 0.0 0.00 0.01 0.00 61 1017.9
20260510144822 75 360 0.0 0.0 0.00 0.01 0.00 62 1017.9
20260510144700 75 360 0.0 0.0 0.00 0.01 0.00 61 1017.9
20260510144541 75 17 0.0 0.0 0.00 0.01 0.00 60 1017.9
20260510144523 74 5 0.0 0.0 0.00 0.01 0.00 60 1017.2
20260510144441 75 5 0.0 0.0 0.00 0.01 0.00 60 1017.9
20260510144342 75 355 0.0 0.0 0.00 0.01 0.00 61 1017.9
20260510144247 75 349 0.0 0.0 0.00 0.01 0.00 61 1017.9
20260510144148 75 351 0.0 0.0 0.00 0.01 0.00 61 1017.9
20260510144049 75 348 0.0 0.0 0.00 0.01 0.00 61 1017.8
20260510143947 75 325 0.0 0.0 0.00 0.01 0.00 61 1017.8
20260510143848 75 321 0.0 0.0 0.00 0.01 0.00 62 1017.9
20260510143749 75 344 0.0 0.0 0.00 0.01 0.00 61 1017.8
20260510143648 74 360 0.0 0.0 0.00 0.01 0.00 62 1017.7
20260510143546 74 5 0.0 0.0 0.00 0.01 0.00 61 1017.8
20260510143510 74 355 0.0 0.0 0.00 0.01 0.00 62 1017.7
20260510143409 74 313 0.0 0.0 0.00 0.01 0.00 64 1017.7
20260510143307 74 312 0.0 0.0 0.00 0.01 0.00 65 1017.7
20260510143141 74 312 0.0 0.0 0.00 0.01 0.00 65 1017.8
20260510143102 74 312 0.0 0.0 0.00 0.01 0.00 66 1017.2
20260510143042 74 312 0.0 0.0 0.00 0.01 0.00 64 1017.7
20260510142943 74 313 0.0 0.0 0.00 0.01 0.00 66 1017.7
20260510142844 74 310 0.0 0.0 0.00 0.01 0.00 67 1017.8
20260510142749 74 348 0.0 0.0 0.00 0.01 0.00 63 1017.8
20260510142649 74 298 0.0 0.0 0.00 0.01 0.00 64 1017.7
20260510142609 74 190 0.0 0.0 0.00 0.01 0.00 63 1017.8
20260510142441 74 350 0.0 0.0 0.00 0.01 0.00 67 1017.8
20260510142342 74 344 0.0 0.0 0.00 0.01 0.00 66 1017.7
20260510142243 74 345 0.0 0.0 0.00 0.01 0.00 65 1017.7
20260510142143 74 350 0.0 0.0 0.00 0.01 0.00 62 1017.7
20260510142047 74 325 0.0 0.0 0.00 0.01 0.00 62 1017.7
20260510141949 74 327 0.0 0.0 0.00 0.01 0.00 62 1017.7
20260510141849 74 355 0.0 0.0 0.00 0.01 0.00 64 1017.7
20260510141749 73 355 0.0 0.0 0.00 0.01 0.00 65 1017.7
20260510141651 73 348 0.0 0.0 0.00 0.01 0.00 65 1017.7
20260510141612 73 346 0.0 0.0 0.00 0.01 0.00 67 1017.7
20260510141509 73 323 0.0 0.0 0.00 0.01 0.00 66 1017.2
20260510141452 73 350 0.0 0.0 0.00 0.01 0.00 66 1017.7
20260510141418 73 324 0.0 0.0 0.00 0.01 0.00 65 1017.7
20260510141258 73 339 0.0 0.0 0.00 0.01 0.00 67 1017.7
20260510141158 73 342 0.0 0.0 0.00 0.01 0.00 66 1017.6
20260510141059 73 342 0.0 0.0 0.00 0.01 0.00 67 1017.6
20260510140959 73 334 0.0 0.0 0.00 0.01 0.00 67 1017.6
20260510140858 73 344 0.0 0.0 0.00 0.01 0.00 67 1017.6
20260510140743 73 355 0.0 0.0 0.00 0.01 0.00 69 1017.7
20260510140645 72 346 0.0 0.0 0.00 0.01 0.00 66 1017.6
20260510140547 72 337 0.0 0.0 0.00 0.01 0.00 67 1017.7
20260510140446 72 23 0.0 0.0 0.00 0.01 0.00 68 1017.7
20260510140346 72 15 0.0 0.0 0.00 0.01 0.00 70 1017.6
20260510140307 72 329 0.0 0.0 0.00 0.01 0.00 68 1017.6
20260510140217 72 329 0.0 0.0 0.00 0.01 0.00 68 1017.6
20260510135944 72 320 0.0 0.0 0.00 0.01 0.00 71 1017.5
20260510135845 72 12 0.0 0.0 0.00 0.01 0.00 70 1017.5
20260510135745 72 327 0.0 0.0 0.00 0.01 0.00 70 1017.5
20260510135646 72 28 0.0 0.0 0.00 0.01 0.00 69 1017.6
20260510135546 72 350 0.0 0.0 0.00 0.01 0.00 70 1017.5
20260510135447 72 355 0.0 0.0 0.00 0.01 0.00 71 1017.6
20260510135352 72 5 0.0 0.0 0.00 0.01 0.00 71 1017.6
20260510135253 72 5 0.0 0.0 0.00 0.01 0.00 71 1017.7
20260510135153 72 350 0.0 0.0 0.00 0.01 0.00 70 1017.7
20260510135053 72 342 0.0 0.0 0.00 0.01 0.00 72 1017.7
20260510135014 72 344 0.0 0.0 0.00 0.01 0.00 74 1017.7
20260510134853 72 344 0.0 0.0 0.00 0.01 0.00 73 1017.7
20260510134754 72 344 0.0 0.0 0.00 0.01 0.00 72 1017.7
20260510134658 71 343 0.0 0.0 0.00 0.01 0.00 72 1017.7
20260510134629 71 344 0.0 0.0 0.00 0.01 0.00 72 1017.1
20260510134558 71 355 0.0 0.0 0.00 0.01 0.00 72 1017.7
20260510134457 71 355 0.0 0.0 0.00 0.01 0.00 72 1017.6
20260510134358 71 347 0.0 0.0 0.00 0.01 0.00 73 1017.7
20260510134259 71 347 0.0 0.0 0.00 0.01 0.00 73 1017.7
20260510134200 71 355 0.0 0.0 0.00 0.01 0.00 73 1017.7
20260510134121 71 349 0.0 0.0 0.00 0.01 0.00 73 1017.6
20260510133945 71 9 0.0 0.0 0.00 0.01 0.00 72 1017.6
20260510133845 71 333 0.0 0.0 0.00 0.01 0.00 74 1017.6
20260510133809 71 17 0.0 0.0 0.00 0.01 0.00 74 1017.6
20260510133730 71 5 0.0 0.0 0.00 0.01 0.00 74 1017.6
20260510133458 71 5 0.0 0.0 0.00 0.01 0.00 74 1017.8
20260510133359 71 355 0.0 0.0 0.00 0.01 0.00 75 1017.8
20260510133242 71 345 0.0 0.0 0.00 0.01 0.00 76 1017.8
20260510133142 71 360 0.0 0.0 0.00 0.01 0.00 80 1017.8
20260510133057 70 332 0.0 0.0 0.00 0.01 0.00 80 1017.2
20260510133042 70 317 0.0 0.0 0.00 0.01 0.00 80 1017.7
20260510132942 70 311 0.0 0.0 0.00 0.01 0.00 80 1017.7
20260510132843 70 12 0.0 0.0 0.00 0.01 0.00 79 1017.7
20260510132804 70 336 0.0 0.0 0.00 0.01 0.00 79 1017.8
20260510132644 70 335 0.0 0.0 0.00 0.01 0.00 78 1017.8
20260510132605 70 309 0.0 0.0 0.00 0.01 0.00 79 1017.8
20260510132449 70 309 0.0 0.0 0.00 0.01 0.00 79 1017.8
20260510132409 70 307 0.0 0.0 0.00 0.01 0.00 79 1017.8
20260510132249 70 338 0.0 0.0 0.00 0.01 0.00 80 1017.7
20260510132150 70 360 0.0 0.0 0.00 0.01 0.00 81 1017.7
20260510132048 70 338 0.0 0.0 0.00 0.01 0.00 81 1017.7
20260510131948 69 338 0.0 0.0 0.00 0.01 0.00 84 1017.7
20260510131909 69 338 0.0 0.0 0.00 0.01 0.00 85 1017.7
20260510131749 69 338 0.0 0.0 0.00 0.01 0.00 86 1017.7
20260510131652 69 336 0.0 0.0 0.00 0.01 0.00 87 1017.7
20260510131553 69 5 0.0 0.0 0.00 0.01 0.00 87 1017.7
20260510131545 68 5 0.0 0.0 0.00 0.01 0.00 87 1017.2
20260510131451 69 5 0.0 0.0 0.00 0.01 0.00 87 1017.8
20260510131350 69 5 0.0 0.0 0.00 0.01 0.00 86 1017.7
20260510131249 68 5 0.0 0.0 0.00 0.01 0.00 87 1017.8
20260510131148 68 5 0.0 0.0 0.00 0.01 0.00 87 1017.8
20260510131051 68 5 0.0 0.0 0.00 0.01 0.00 88 1017.8
20260510130950 68 5 0.0 0.0 0.00 0.01 0.00 89 1017.7
20260510130848 68 5 0.0 0.0 0.00 0.01 0.00 89 1017.7
20260510130747 68 5 0.0 0.0 0.00 0.01 0.00 89 1017.7
20260510130707 68 5 0.0 0.0 0.00 0.01 0.00 90 1017.7
20260510130545 68 5 0.0 0.0 0.00 0.01 0.00 90 1017.8
20260510130508 67 5 0.0 0.0 0.00 0.01 0.00 91 1017.8
20260510130428 67 292 0.0 0.0 0.00 0.01 0.00 91 1017.8
20260510130253 67 292 0.0 0.0 0.00 0.01 0.00 91 1017.8
20260510130218 67 292 0.0 0.0 0.00 0.01 0.00 91 1017.8
20260510125943 67 292 0.0 0.0 0.00 0.01 0.00 92 1017.8
20260510125842 67 292 0.0 0.0 0.00 0.01 0.00 92 1017.7
20260510125741 66 292 0.0 0.0 0.00 0.01 0.00 92 1017.7
20260510125644 66 292 0.0 0.0 0.00 0.01 0.00 92 1017.7
20260510125543 66 292 0.0 0.0 0.00 0.01 0.00 93 1017.7
20260510125442 66 289 0.0 0.0 0.00 0.01 0.00 93 1017.7
20260510125341 66 281 0.0 0.0 0.00 0.01 0.00 93 1017.7
20260510125300 66 279 0.0 0.0 0.00 0.01 0.00 93 1017.7
20260510125158 66 275 0.0 0.0 0.00 0.01 0.00 93 1017.6
20260510125057 66 275 0.0 0.0 0.00 0.01 0.00 93 1017.7
20260510125000 65 334 0.0 0.0 0.00 0.01 0.00 93 1017.7
20260510124919 65 334 0.0 0.0 0.00 0.01 0.00 93 1017.6
20260510124817 65 334 0.0 0.0 0.00 0.01 0.00 94 1017.7
20260510124655 65 334 0.0 0.0 0.00 0.01 0.00 94 1017.6
20260510124555 65 334 0.0 0.0 0.00 0.01 0.00 95 1017.6
20260510124512 64 331 0.0 0.0 0.00 0.01 0.00 95 1017.1
20260510124454 65 333 0.0 0.0 0.00 0.01 0.00 95 1017.6
20260510124354 65 81 0.0 0.0 0.00 0.01 0.00 95 1017.6
20260510124254 65 340 0.0 0.0 0.00 0.01 0.00 96 1017.6
20260510124155 65 338 0.0 0.0 0.00 0.01 0.00 96 1017.6
20260510124055 65 355 0.0 0.0 0.00 0.01 0.00 96 1017.6
20260510123955 65 360 0.0 0.0 0.00 0.01 0.00 96 1017.5
20260510123854 65 360 0.0 0.0 0.00 0.01 0.00 96 1017.5
20260510123754 65 121 0.0 0.0 0.00 0.01 0.00 96 1017.6
20260510123654 65 121 0.0 0.0 0.00 0.01 0.00 97 1017.5
20260510123558 65 121 0.0 0.0 0.00 0.01 0.00 97 1017.6
20260510123457 64 121 0.0 0.0 0.00 0.01 0.00 96 1017.5
20260510123356 64 121 0.0 0.0 0.00 0.01 0.00 96 1017.5
20260510123255 64 121 0.0 0.0 0.00 0.01 0.00 97 1017.4
20260510123154 64 121 0.0 0.0 0.00 0.01 0.00 97 1017.4
20260510123131 63 121 0.0 0.0 0.00 0.01 0.00 97 1016.9
20260510123113 64 121 0.0 0.0 0.00 0.01 0.00 97 1017.4
20260510122951 64 121 0.0 0.0 0.00 0.01 0.00 97 1017.4
20260510122854 64 121 0.0 0.0 0.00 0.01 0.00 97 1017.3
20260510122753 63 177 0.0 0.0 0.00 0.01 0.00 97 1017.3
20260510122652 63 177 0.0 0.0 0.00 0.01 0.00 97 1017.3
20260510122551 63 177 0.0 0.0 0.00 0.01 0.00 97 1017.4
20260510122450 63 177 0.0 0.0 0.00 0.01 0.00 97 1017.3
20260510122349 63 178 0.0 0.0 0.00 0.01 0.00 97 1017.3
20260510122248 63 178 0.0 0.0 0.00 0.01 0.00 97 1017.2
20260510122150 63 178 0.0 0.0 0.00 0.01 0.00 97 1017.3
20260510122048 62 178 0.0 0.0 0.00 0.01 0.00 97 1017.3
20260510121947 62 177 0.0 0.0 0.00 0.01 0.00 97 1017.2
20260510121846 62 177 0.0 0.0 0.00 0.01 0.00 97 1017.2
20260510121745 62 177 0.0 0.0 0.00 0.01 0.00 97 1017.1
20260510121645 62 177 0.0 0.0 0.00 0.01 0.00 97 1017.1
20260510121548 62 177 0.0 0.0 0.00 0.01 0.00 97 1017.1
20260510121501 61 177 0.0 0.0 0.00 0.01 0.00 97 1016.6
20260510121448 62 177 0.0 0.0 0.00 0.01 0.00 97 1017.1
20260510121348 62 177 0.0 0.0 0.00 0.01 0.00 97 1017.0
20260510121247 62 177 0.0 0.0 0.00 0.01 0.00 97 1017.1
20260510121146 61 177 0.0 0.0 0.00 0.01 0.00 97 1017.0
20260510121106 61 177 0.0 0.0 0.00 0.01 0.00 97 1017.0
20260510120943 61 177 0.0 0.0 0.00 0.01 0.00 97 1017.0
20260510120901 61 177 0.0 0.0 0.00 0.01 0.00 97 1017.0
20260510120744 61 177 0.0 0.0 0.00 0.01 0.00 97 1016.9
20260510120642 61 177 0.0 0.0 0.00 0.01 0.00 97 1016.9
20260510120601 61 177 0.0 0.0 0.00 0.01 0.00 97 1016.9
20260510120520 61 180 0.0 0.0 0.00 0.01 0.00 97 1016.8
20260510120358 61 180 0.0 0.0 0.00 0.01 0.00 97 1016.8
20260510120257 60 164 0.0 0.0 0.00 0.01 0.00 97 1016.8
20260510120227 60 164 0.0 0.0 0.00 0.01 0.00 97 1016.8
20260510120014 59 164 0.0 0.0 0.00 0.01 0.00 97 1016.3
20260510115953 60 164 0.0 0.0 0.00 0.01 0.00 97 1016.8
20260510115852 60 164 0.0 0.0 0.00 0.01 0.00 97 1016.9
20260510115752 60 164 0.0 0.0 0.00 0.01 0.00 97 1016.8
20260510115651 59 164 0.0 0.0 0.00 0.01 0.00 97 1016.8
20260510115550 59 164 0.0 0.0 0.00 0.01 0.00 97 1016.9
20260510115453 59 164 0.0 0.0 0.00 0.01 0.00 97 1016.9
20260510115352 59 164 0.0 0.0 0.00 0.01 0.00 97 1016.9
20260510115251 59 164 0.0 0.0 0.00 0.01 0.00 97 1016.8
20260510115149 59 164 0.0 0.0 0.00 0.01 0.00 97 1016.8
20260510115109 58 164 0.0 0.0 0.00 0.01 0.00 97 1016.8
20260510114948 58 164 0.0 0.0 0.00 0.01 0.00 97 1016.8
20260510114907 58 164 0.0 0.0 0.00 0.01 0.00 97 1016.8
20260510114745 58 164 0.0 0.0 0.00 0.01 0.00 97 1016.8
20260510114647 58 164 0.0 0.0 0.00 0.01 0.00 97 1016.7
20260510114546 58 164 0.0 0.0 0.00 0.01 0.00 97 1016.7
20260510114526 57 164 0.0 0.0 0.00 0.01 0.00 97 1016.3
20260510114445 58 164 0.0 0.0 0.00 0.01 0.00 97 1016.7
20260510114404 58 164 0.0 0.0 0.00 0.01 0.00 97 1016.7
20260510114242 58 164 0.0 0.0 0.00 0.01 0.00 97 1016.6
20260510114141 58 164 0.0 0.0 0.00 0.01 0.00 97 1016.7
20260510114041 58 164 0.0 0.0 0.00 0.01 0.00 97 1016.6
20260510114004 57 164 0.0 0.0 0.00 0.01 0.00 97 1016.6
20260510113842 57 164 0.0 0.0 0.00 0.01 0.00 97 1016.7
20260510113759 57 164 0.0 0.0 0.00 0.01 0.00 97 1016.6
20260510113657 57 164 0.0 0.0 0.00 0.01 0.00 96 1016.7
20260510113557 57 97 0.0 0.0 0.00 0.01 0.00 97 1016.6
20260510113456 57 344 0.0 0.0 0.00 0.01 0.00 97 1016.6
20260510113355 57 355 0.0 0.0 0.00 0.01 0.00 97 1016.6
20260510113254 57 355 0.0 0.0 0.00 0.01 0.00 97 1016.6
20260510113158 57 355 0.0 0.0 0.00 0.01 0.00 97 1016.5
20260510113058 57 355 0.0 0.0 0.00 0.01 0.00 97 1016.5
20260510113018 57 355 0.0 0.0 0.00 0.01 0.00 97 1016.1
20260510112958 57 355 0.0 0.0 0.00 0.01 0.00 97 1016.5
20260510112917 57 81 0.0 0.0 0.00 0.01 0.00 97 1016.5
20260510112755 57 81 0.0 0.0 0.00 0.01 0.00 97 1016.5
20260510112654 57 82 0.0 0.0 0.00 0.01 0.00 96 1016.5
20260510112552 57 81 0.0 0.0 0.00 0.01 0.00 97 1016.5
20260510112455 56 82 0.0 0.0 0.00 0.01 0.00 97 1016.4
20260510112414 56 82 0.0 0.0 0.00 0.01 0.00 96 1016.4
20260510112253 56 82 0.0 0.0 0.00 0.01 0.00 96 1016.4
20260510112153 56 81 0.0 0.0 0.00 0.01 0.00 96 1016.4
20260510112053 56 82 0.0 0.0 0.00 0.01 0.00 96 1016.4
20260510111953 56 81 0.0 0.0 0.00 0.01 0.00 96 1016.4
20260510111853 56 82 0.0 0.0 0.00 0.02 0.00 96 1016.4
20260510111756 56 82 0.0 0.0 0.00 0.02 0.00 96 1016.4
20260510111655 56 82 0.0 0.0 0.00 0.02 0.00 96 1016.4
20260510111553 56 82 0.0 0.0 0.00 0.02 0.00 96 1016.4
20260510111506 55 82 0.0 0.0 0.00 0.02 0.00 96 1016.0
20260510111452 56 82 0.0 0.0 0.00 0.02 0.00 96 1016.4
20260510111351 56 82 0.0 0.0 0.00 0.02 0.00 96 1016.4
20260510111250 56 82 0.0 0.0 0.00 0.02 0.00 96 1016.4
20260510111150 56 82 0.0 0.0 0.00 0.02 0.00 96 1016.4
20260510111113 56 82 0.0 0.0 0.00 0.02 0.00 96 1016.4
20260510111011 56 84 0.0 0.0 0.00 0.02 0.00 96 1016.3
20260510110849 56 90 0.0 0.0 0.00 0.02 0.00 96 1016.3
20260510110748 56 90 0.0 0.0 0.00 0.02 0.00 96 1016.3
20260510110707 56 90 0.0 0.0 0.00 0.02 0.00 96 1016.3
20260510110545 56 90 0.0 0.0 0.00 0.02 0.00 96 1016.3
20260510110505 56 22 0.0 0.0 0.00 0.02 0.00 96 1016.3
20260510110424 56 22 0.0 0.0 0.00 0.02 0.00 96 1016.3
20260510110305 56 92 0.0 0.0 0.00 0.02 0.00 96 1016.2
20260510110233 56 92 0.0 0.0 0.00 0.02 0.00 96 1016.2
20260510110044 55 92 0.0 0.0 0.00 0.02 0.00 96 1015.8
20260510110000 56 92 0.0 0.0 0.00 0.02 0.00 96 1016.2
20260510105900 56 92 0.0 0.0 0.00 0.02 0.00 96 1016.2
20260510105800 56 92 0.0 0.0 0.00 0.02 0.00 96 1016.2
20260510105700 56 92 0.0 0.0 0.00 0.02 0.00 96 1016.2
20260510105543 56 92 0.0 0.0 0.00 0.02 0.00 96 1016.2
20260510105443 56 92 0.0 0.0 0.00 0.02 0.00 96 1016.2
20260510105342 56 92 0.0 0.0 0.00 0.02 0.00 96 1016.2
20260510105242 56 92 0.0 0.0 0.00 0.02 0.00 96 1016.2
20260510105142 56 92 0.0 0.0 0.00 0.02 0.00 96 1016.2
20260510105042 56 92 0.0 0.0 0.00 0.02 0.00 96 1016.2
20260510104946 56 92 0.0 0.0 0.00 0.02 0.00 96 1016.2
20260510104846 56 92 0.0 0.0 0.00 0.02 0.00 96 1016.2
20260510104747 56 92 0.0 0.0 0.00 0.02 0.00 96 1016.2
20260510104646 56 92 0.0 0.0 0.00 0.02 0.00 96 1016.2
20260510104546 56 92 0.0 0.0 0.00 0.02 0.00 96 1016.1
20260510104512 55 92 0.0 0.0 0.00 0.02 0.00 96 1015.6
20260510104445 56 92 0.0 0.0 0.00 0.02 0.00 96 1016.1
20260510104343 56 92 0.0 0.0 0.00 0.02 0.00 96 1016.1
20260510104247 56 92 0.0 0.0 0.00 0.02 0.00 96 1016.0
20260510104146 56 92 0.0 0.0 0.00 0.02 0.00 96 1016.0
20260510104044 56 92 0.0 0.0 0.00 0.02 0.00 96 1016.0
20260510103943 56 92 0.0 0.0 0.00 0.02 0.00 96 1015.9
20260510103842 56 92 0.0 0.0 0.00 0.02 0.00 96 1015.9
20260510103800 56 92 0.0 0.0 0.00 0.02 0.00 96 1015.9
20260510103643 56 92 0.0 0.0 0.00 0.02 0.00 96 1015.9
20260510103543 56 92 0.0 0.0 0.00 0.02 0.00 96 1015.9
20260510103443 56 92 0.0 0.0 0.00 0.02 0.00 96 1015.9
20260510103403 56 92 0.0 0.0 0.00 0.02 0.00 96 1015.9
20260510103241 56 92 0.0 0.0 0.00 0.02 0.00 96 1015.9
20260510103200 56 92 0.0 0.0 0.00 0.02 0.00 96 1015.8
20260510103058 56 92 0.0 0.0 0.00 0.02 0.00 96 1015.7
20260510103045 55 92 0.0 0.0 0.00 0.02 0.00 96 1015.3
20260510102958 56 92 0.0 0.0 0.00 0.02 0.00 96 1015.7
20260510102900 56 88 0.0 0.0 0.00 0.02 0.00 96 1015.8
20260510102759 56 88 0.0 0.0 0.00 0.02 0.00 96 1015.7
20260510102659 56 88 0.0 0.0 0.00 0.02 0.00 96 1015.7
20260510102558 56 88 0.0 0.0 0.00 0.02 0.00 96 1015.6
20260510102454 56 88 0.0 0.0 0.00 0.02 0.00 96 1015.6
20260510102411 56 88 0.0 0.0 0.00 0.02 0.00 96 1015.6
20260510102309 56 88 0.0 0.0 0.00 0.02 0.00 96 1015.6
20260510102145 56 88 0.0 0.0 0.00 0.02 0.00 96 1015.6
20260510102048 56 88 0.0 0.0 0.00 0.02 0.00 96 1015.6
20260510101943 56 88 0.0 0.0 0.00 0.02 0.00 96 1015.5
20260510101900 56 88 0.0 0.0 0.00 0.02 0.00 96 1015.5
20260510101759 56 88 0.0 0.0 0.00 0.02 0.00 96 1015.5
20260510101718 56 88 0.0 0.0 0.00 0.02 0.00 96 1015.5
20260510101556 56 88 0.0 0.0 0.00 0.02 0.00 96 1015.5
20260510101541 55 88 0.0 0.0 0.00 0.02 0.00 96 1015.0
20260510101454 56 88 0.0 0.0 0.00 0.02 0.00 96 1015.5
20260510101353 56 88 0.0 0.0 0.00 0.02 0.00 96 1015.5
20260510101255 56 88 0.0 0.0 0.00 0.02 0.00 96 1015.5
20260510101155 56 88 0.0 0.0 0.00 0.02 0.00 96 1015.5
20260510101054 56 88 0.0 0.0 0.00 0.02 0.00 96 1015.4
20260510100954 56 88 0.0 0.0 0.00 0.02 0.00 96 1015.4
20260510100854 56 88 0.0 0.0 0.00 0.02 0.00 96 1015.4
20260510100753 56 88 0.0 0.0 0.00 0.02 0.00 96 1015.4
20260510100653 56 88 0.0 0.0 0.00 0.02 0.00 96 1015.4
20260510100614 56 88 0.0 0.0 0.00 0.02 0.00 96 1015.4
20260510100453 56 88 0.0 0.0 0.00 0.02 0.00 96 1015.4
20260510100351 56 63 0.0 0.0 0.00 0.02 0.00 96 1015.4
20260510100315 56 63 0.0 0.0 0.00 0.02 0.00 96 1015.4
20260510100236 56 63 0.0 0.0 0.00 0.02 0.00 96 1015.4
20260510100000 56 64 0.0 0.0 0.00 0.02 0.00 96 1015.3
20260510095903 56 64 0.0 0.0 0.00 0.02 0.00 96 1015.3
20260510095742 56 64 0.0 0.0 0.00 0.02 0.00 96 1015.3
20260510095643 56 64 0.0 0.0 0.00 0.02 0.00 96 1015.2
20260510095600 56 64 0.0 0.0 0.00 0.02 0.00 96 1015.3
20260510095456 56 64 0.0 0.0 0.00 0.02 0.00 96 1015.3
20260510095413 56 64 0.0 0.0 0.00 0.02 0.00 96 1015.3
20260510095252 56 64 0.0 0.0 0.00 0.02 0.00 96 1015.3
20260510095152 56 64 0.0 0.0 0.00 0.02 0.00 96 1015.3
20260510095052 56 64 0.0 0.0 0.00 0.02 0.00 96 1015.2
20260510094950 56 64 0.0 0.0 0.00 0.02 0.00 96 1015.2
20260510094911 56 64 0.0 0.0 0.00 0.02 0.00 96 1015.2
20260510094750 56 64 0.0 0.0 0.00 0.02 0.00 96 1015.2
20260510094651 56 64 0.0 0.0 0.00 0.02 0.00 96 1015.2
20260510094547 56 64 0.0 0.0 0.00 0.02 0.00 96 1015.1
20260510094510 55 64 0.0 0.0 0.00 0.02 0.00 96 1014.7
20260510094445 56 64 0.0 0.0 0.00 0.02 0.00 96 1015.1
20260510094350 56 64 0.0 0.0 0.00 0.02 0.00 96 1015.2
20260510094250 56 64 0.0 0.0 0.00 0.02 0.00 96 1015.0
20260510094148 56 64 0.0 0.0 0.00 0.02 0.00 96 1015.1
20260510094048 56 64 0.0 0.0 0.00 0.02 0.00 96 1015.0
20260510093948 56 64 0.0 0.0 0.00 0.02 0.00 96 1015.0
20260510093848 56 64 0.0 0.0 0.00 0.02 0.00 96 1015.0
20260510093747 56 64 0.0 0.0 0.00 0.02 0.00 96 1015.0
20260510093648 56 64 0.0 0.0 0.00 0.02 0.00 96 1015.0
20260510093546 56 64 0.0 0.0 0.00 0.02 0.00 96 1015.0
20260510093447 56 64 0.0 0.0 0.00 0.02 0.00 96 1015.0
20260510093407 56 64 0.0 0.0 0.00 0.02 0.00 96 1015.0
20260510093247 56 64 0.0 0.0 0.00 0.02 0.00 96 1015.0
20260510093146 56 64 0.0 0.0 0.00 0.02 0.00 96 1015.0
20260510093108 56 64 0.0 0.0 0.00 0.02 0.00 96 1014.6
20260510093047 56 64 0.0 0.0 0.00 0.02 0.00 96 1015.0
20260510092947 56 64 0.0 0.0 0.00 0.02 0.00 96 1015.0
20260510092851 56 64 0.0 0.0 0.00 0.02 0.00 96 1015.0
20260510092749 56 64 0.0 0.0 0.00 0.02 0.00 96 1015.0
20260510092648 56 64 0.0 0.0 0.00 0.02 0.00 96 1015.0
20260510092547 56 64 0.0 0.0 0.00 0.02 0.00 96 1015.0
20260510092506 57 64 0.0 0.0 0.00 0.02 0.00 96 1015.0
20260510092345 56 64 0.0 0.0 0.00 0.02 0.00 96 1014.9
20260510092246 56 64 0.0 0.0 0.00 0.02 0.00 96 1014.9
20260510092150 56 64 0.0 0.0 0.00 0.02 0.00 96 1014.9
20260510092048 57 64 0.0 0.0 0.00 0.02 0.00 96 1014.9
20260510091947 57 64 0.0 0.0 0.00 0.02 0.00 96 1014.8
20260510091846 56 64 0.0 0.0 0.00 0.02 0.00 96 1014.8
20260510091805 57 64 0.0 0.0 0.00 0.02 0.00 96 1014.8
20260510091643 57 64 0.0 0.0 0.00 0.02 0.00 95 1014.8
20260510091611 56 64 0.0 0.0 0.00 0.02 0.00 95 1014.3
20260510091543 57 64 0.0 0.0 0.00 0.02 0.00 95 1014.8
20260510091508 57 64 0.0 0.0 0.00 0.02 0.00 96 1014.8
20260510091426 57 64 0.0 0.0 0.00 0.02 0.00 96 1014.8
20260510091324 57 64 0.0 0.0 0.00 0.02 0.00 96 1014.8
20260510091222 57 64 0.0 0.0 0.00 0.02 0.00 96 1014.8
20260510091041 57 64 0.0 0.0 0.00 0.02 0.00 96 1014.8
20260510090958 57 64 0.0 0.0 0.00 0.02 0.00 96 1014.8
20260510090856 57 64 0.0 0.0 0.00 0.02 0.00 96 1014.9
20260510090817 57 64 0.0 0.0 0.00 0.02 0.00 96 1014.8
20260510090655 57 64 0.0 0.0 0.00 0.02 0.00 96 1014.8
20260510090615 57 64 0.0 0.0 0.00 0.02 0.00 96 1014.9
20260510090450 57 64 0.0 0.0 0.00 0.02 0.00 96 1014.8
20260510090351 57 64 0.0 0.0 0.00 0.02 0.00 96 1014.8
20260510090252 57 64 0.0 0.0 0.00 0.02 0.00 96 1014.7
20260510090220 57 64 0.0 0.0 0.00 0.02 0.00 96 1014.7
20260510090030 56 64 0.0 0.0 0.00 0.02 0.00 96 1014.3
20260510085949 57 64 0.0 0.0 0.00 0.02 0.00 96 1014.7
20260510085850 57 64 0.0 0.0 0.00 0.02 0.00 96 1014.7
20260510085750 57 64 0.0 0.0 0.00 0.02 0.00 96 1014.7
20260510085651 57 64 0.0 0.0 0.00 0.02 0.00 96 1014.6
20260510085549 57 64 0.0 0.0 0.00 0.02 0.00 96 1014.6
20260510085447 57 64 0.0 0.0 0.00 0.02 0.00 96 1014.5
20260510085343 57 64 0.0 0.0 0.00 0.02 0.00 96 1014.5
20260510085248 57 64 0.0 0.0 0.00 0.02 0.00 96 1014.5
20260510085147 57 64 0.0 0.0 0.00 0.02 0.00 96 1014.5
20260510085048 57 64 0.0 0.0 0.00 0.02 0.00 96 1014.5
20260510084948 57 64 0.0 0.0 0.00 0.02 0.00 95 1014.5
20260510084846 57 64 0.0 0.0 0.00 0.02 0.00 95 1014.5
20260510084747 57 64 0.0 0.0 0.00 0.02 0.00 95 1014.5
20260510084649 57 64 0.0 0.0 0.00 0.02 0.00 96 1014.5
20260510084636 56 64 0.0 0.0 0.00 0.02 0.00 96 1014.1
20260510084608 57 64 0.0 0.0 0.00 0.02 0.00 95 1014.5
20260510084446 57 64 0.0 0.0 0.00 0.02 0.00 96 1014.6
20260510084346 57 64 0.0 0.0 0.00 0.02 0.00 95 1014.6
20260510084246 57 64 0.0 0.0 0.00 0.02 0.00 95 1014.6
20260510084207 57 64 0.0 0.0 0.00 0.02 0.00 95 1014.6
20260510084105 57 64 0.0 0.0 0.00 0.02 0.00 95 1014.5
20260510084002 57 64 0.0 0.0 0.00 0.02 0.00 95 1014.5
20260510083841 57 64 0.0 0.0 0.00 0.02 0.00 96 1014.4
20260510083746 57 64 0.0 0.0 0.00 0.02 0.00 96 1014.4
20260510083646 57 64 0.0 0.0 0.00 0.02 0.00 95 1014.4
20260510083547 57 64 0.0 0.0 0.00 0.02 0.00 96 1014.4
20260510083507 57 64 0.0 0.0 0.00 0.02 0.00 96 1014.4
20260510083345 57 64 0.0 0.0 0.00 0.02 0.00 96 1014.4
20260510083244 57 64 0.0 0.0 0.00 0.02 0.00 96 1014.4
20260510083145 57 64 0.0 0.0 0.00 0.02 0.00 96 1014.3
20260510083116 57 64 0.0 0.0 0.00 0.02 0.00 96 1013.8
20260510083050 57 64 0.0 0.0 0.00 0.02 0.00 96 1014.2
20260510082950 57 64 0.0 0.0 0.00 0.02 0.00 96 1014.3
20260510082848 57 64 0.0 0.0 0.00 0.02 0.00 96 1014.2
20260510082745 57 64 0.0 0.0 0.00 0.02 0.00 95 1014.2
20260510082705 57 64 0.0 0.0 0.00 0.02 0.00 96 1014.2
20260510082601 57 64 0.0 0.0 0.00 0.02 0.00 96 1014.2
20260510082456 57 64 0.0 0.0 0.00 0.02 0.00 95 1014.2
20260510082356 57 64 0.0 0.0 0.00 0.02 0.00 96 1014.2
20260510082241 57 64 0.0 0.0 0.00 0.02 0.00 96 1014.2
20260510082202 57 64 0.0 0.0 0.00 0.02 0.00 95 1014.2
20260510082057 58 64 0.0 0.0 0.00 0.02 0.00 95 1014.2
20260510081956 58 64 0.0 0.0 0.00 0.02 0.00 95 1014.2
20260510081856 58 64 0.0 0.0 0.00 0.02 0.00 95 1014.2
20260510081756 58 64 0.0 0.0 0.00 0.02 0.00 95 1014.2
20260510081641 58 64 0.0 0.0 0.00 0.02 0.00 95 1014.2
20260510081542 58 64 0.0 0.0 0.00 0.02 0.00 95 1014.2
20260510081521 57 64 0.0 0.0 0.00 0.02 0.00 95 1013.7
20260510081442 58 64 0.0 0.0 0.00 0.02 0.00 95 1014.2
20260510081342 58 64 0.0 0.0 0.00 0.02 0.00 95 1014.2
20260510081241 58 64 0.0 0.0 0.00 0.02 0.00 95 1014.1
20260510081159 58 64 0.0 0.0 0.00 0.02 0.00 95 1014.1
20260510081056 58 64 0.0 0.0 0.00 0.02 0.00 95 1014.1
20260510081000 58 64 0.0 0.0 0.00 0.02 0.00 95 1014.0
20260510080919 58 64 0.0 0.0 0.00 0.02 0.00 96 1014.0
20260510080759 58 64 0.0 0.0 0.00 0.02 0.00 96 1014.0
20260510080700 58 64 0.0 0.0 0.00 0.02 0.00 96 1014.0
20260510080620 58 64 0.0 0.0 0.00 0.02 0.00 96 1014.0
20260510080459 58 64 0.0 0.0 0.00 0.02 0.00 96 1014.1
20260510080354 58 64 0.0 0.0 0.00 0.02 0.00 96 1014.0
20260510080242 58 64 0.0 0.0 0.00 0.02 0.00 96 1014.1
20260510080003 57 64 0.0 0.0 0.00 0.02 0.00 96 1013.5
20260510075941 58 64 0.0 0.0 0.00 0.02 0.00 96 1014.0
20260510075902 58 64 0.0 0.0 0.00 0.02 0.00 96 1014.0
20260510075742 58 64 0.0 0.0 0.00 0.02 0.00 96 1014.1
20260510075647 58 64 0.0 0.0 0.00 0.02 0.00 96 1014.0
20260510075548 58 64 0.0 0.0 0.00 0.02 0.00 96 1014.1
20260510075449 58 64 0.0 0.0 0.00 0.02 0.00 96 1014.1
20260510075410 58 64 0.0 0.0 0.00 0.02 0.00 96 1014.1
20260510075250 58 64 0.0 0.0 0.00 0.02 0.00 96 1014.1
20260510075150 58 64 0.0 0.0 0.00 0.02 0.00 96 1014.1
20260510075051 58 64 0.0 0.0 0.00 0.02 0.00 96 1014.1
20260510074955 58 64 0.0 0.0 0.00 0.02 0.00 96 1014.1
20260510074855 58 64 0.0 0.0 0.00 0.02 0.00 96 1014.1
20260510074755 58 64 0.0 0.0 0.00 0.02 0.00 96 1014.1
20260510074655 58 64 0.0 0.0 0.00 0.02 0.00 96 1014.1
20260510074556 58 64 0.0 0.0 0.00 0.02 0.00 96 1014.1
20260510074519 57 64 0.0 0.0 0.00 0.02 0.00 96 1013.6
20260510074457 58 64 0.0 0.0 0.00 0.02 0.00 96 1014.0
20260510074342 58 64 0.0 0.0 0.00 0.02 0.00 96 1014.0
20260510074243 58 64 0.0 0.0 0.00 0.02 0.00 96 1014.0
20260510074142 58 64 0.0 0.0 0.00 0.02 0.00 96 1014.0
20260510074042 58 64 0.0 0.0 0.00 0.02 0.00 96 1013.9
20260510073943 58 64 0.0 0.0 0.00 0.02 0.00 96 1014.0
20260510073843 58 64 0.0 0.0 0.00 0.02 0.00 96 1013.9
20260510073744 58 64 0.0 0.0 0.00 0.02 0.00 96 1014.0
20260510073649 58 64 0.0 0.0 0.00 0.02 0.00 96 1014.0
20260510073550 58 64 0.0 0.0 0.00 0.02 0.00 96 1013.9
20260510073451 58 64 0.0 0.0 0.00 0.02 0.00 96 1014.0
20260510073351 58 64 0.0 0.0 0.00 0.02 0.00 96 1013.9
20260510073251 58 64 0.0 0.0 0.00 0.02 0.00 96 1013.9
20260510073149 58 64 0.0 0.0 0.00 0.02 0.00 95 1013.9
20260510073110 58 64 0.0 0.0 0.00 0.02 0.00 95 1013.9
20260510073032 58 64 0.0 0.0 0.00 0.02 0.00 95 1013.4
20260510072954 58 64 0.0 0.0 0.00 0.02 0.00 95 1013.9
20260510072855 58 64 0.0 0.0 0.00 0.02 0.00 95 1014.0
20260510072756 58 64 0.0 0.0 0.00 0.02 0.00 95 1014.0
20260510072657 58 64 0.0 0.0 0.00 0.02 0.00 95 1014.0
20260510072558 58 64 0.0 0.0 0.00 0.02 0.00 95 1014.0
20260510072458 58 64 0.0 0.0 0.00 0.02 0.00 95 1014.0
20260510072357 58 64 0.0 0.0 0.00 0.02 0.00 95 1014.0
20260510072301 58 64 0.0 0.0 0.00 0.02 0.00 95 1014.0
20260510072221 58 64 0.0 0.0 0.00 0.02 0.00 95 1013.9
20260510072101 58 64 0.0 0.0 0.00 0.02 0.00 95 1014.0
20260510071959 58 64 0.0 0.0 0.00 0.02 0.00 95 1014.0
20260510071900 58 64 0.0 0.0 0.00 0.02 0.02 95 1014.0
20260510071801 58 64 0.0 0.0 0.00 0.02 0.02 95 1013.9
20260510071721 58 64 0.0 0.0 0.00 0.02 0.02 95 1013.9
20260510071612 58 64 0.0 0.0 0.00 0.02 0.02 95 1013.5
20260510071544 58 64 0.0 0.0 0.00 0.02 0.02 95 1013.9
20260510071505 58 64 0.0 0.0 0.00 0.02 0.02 95 1013.9
20260510071344 58 64 0.0 0.0 0.00 0.02 0.02 95 1013.9
20260510071245 58 64 0.0 0.0 0.00 0.02 0.02 95 1013.9
20260510071146 58 64 0.0 0.0 0.00 0.02 0.02 95 1013.9
20260510071106 58 64 0.0 0.0 0.00 0.02 0.02 95 1013.9
20260510070945 58 64 0.0 0.0 0.00 0.02 0.02 96 1013.9
20260510070850 58 64 0.0 0.0 0.00 0.02 0.02 95 1013.8
20260510070810 58 64 0.0 0.0 0.00 0.02 0.02 96 1013.8
20260510070711 58 64 0.0 0.0 0.00 0.02 0.02 95 1013.8
20260510070551 58 64 0.0 0.0 0.00 0.02 0.02 96 1013.8
20260510070449 58 64 0.0 0.0 0.00 0.02 0.02 96 1013.8
20260510070349 58 64 0.0 0.0 0.00 0.02 0.02 95 1013.8
20260510070250 58 64 0.0 0.0 0.00 0.02 0.02 95 1013.8
20260510070221 58 64 0.0 0.0 0.00 0.02 0.02 95 1013.9
20260510070031 58 64 0.0 0.0 0.00 0.02 0.02 95 1013.3
20260510070008 58 64 0.0 0.0 0.00 0.02 0.02 95 1013.8
20260510065847 58 64 0.0 0.0 0.00 0.02 0.02 95 1013.8
20260510065807 58 64 0.0 0.0 0.00 0.02 0.02 95 1013.8
20260510065641 58 64 0.0 0.0 0.00 0.02 0.02 95 1013.8
20260510065542 58 64 0.0 0.0 0.00 0.02 0.02 95 1013.8
20260510065443 58 64 0.0 0.0 0.00 0.02 0.02 95 1013.8
20260510065348 58 64 0.0 0.0 0.00 0.02 0.02 95 1013.8
20260510065307 58 64 0.0 0.0 0.00 0.02 0.02 95 1013.8
20260510065141 59 64 0.0 0.0 0.00 0.02 0.02 95 1013.8
20260510065042 59 64 0.0 0.0 0.00 0.02 0.02 95 1013.8
20260510064942 59 64 0.0 0.0 0.00 0.02 0.02 95 1013.8
20260510064844 59 64 0.0 0.0 0.00 0.02 0.02 95 1013.9
20260510064743 59 64 0.0 0.0 0.00 0.02 0.02 95 1013.9
20260510064711 59 64 0.0 0.0 0.00 0.02 0.02 95 1013.9
20260510064629 59 64 0.0 0.0 0.00 0.02 0.02 95 1013.9
20260510064522 58 64 0.0 0.0 0.00 0.02 0.02 95 1013.5
20260510064441 59 64 0.0 0.0 0.00 0.02 0.02 95 1014.0
20260510064342 59 64 0.0 0.0 0.00 0.02 0.02 95 1014.0
20260510064241 59 64 0.0 0.0 0.00 0.02 0.02 95 1014.0
20260510064142 59 64 0.0 0.0 0.00 0.02 0.02 95 1014.0
20260510064042 59 64 0.0 0.0 0.00 0.02 0.02 95 1014.0
20260510063949 59 64 0.0 0.0 0.00 0.02 0.02 95 1014.0
20260510063849 59 64 0.0 0.0 0.00 0.02 0.02 95 1014.0
20260510063807 59 64 0.0 0.0 0.00 0.02 0.02 95 1014.0
20260510063641 59 64 0.0 0.0 0.00 0.02 0.02 95 1014.0
20260510063543 59 64 0.0 0.0 0.00 0.02 0.02 95 1014.0
20260510063442 59 64 0.0 0.0 0.00 0.02 0.02 95 1014.0
20260510063343 59 64 0.0 0.0 0.00 0.02 0.02 95 1014.0
20260510063248 59 64 0.0 0.0 0.00 0.02 0.02 95 1014.0
20260510063149 59 64 0.0 0.0 0.00 0.02 0.02 95 1014.0
20260510063109 59 64 0.0 0.0 0.00 0.02 0.02 95 1013.9
20260510063002 58 64 0.0 0.0 0.00 0.02 0.02 95 1013.4
20260510062949 59 64 0.0 0.0 0.00 0.02 0.02 95 1013.9
20260510062848 59 64 0.0 0.0 0.00 0.02 0.02 95 1013.9
20260510062748 59 64 0.0 0.0 0.00 0.02 0.02 95 1013.8
20260510062707 59 64 0.0 0.0 0.00 0.02 0.02 95 1013.8
20260510062541 59 64 0.0 0.0 0.00 0.02 0.02 95 1013.8
20260510062446 59 64 0.0 0.0 0.00 0.02 0.02 95 1013.9
20260510062347 59 64 0.0 0.0 0.00 0.02 0.02 95 1013.8
20260510062247 59 64 0.0 0.0 0.00 0.02 0.02 95 1013.8
20260510062148 59 64 0.0 0.0 0.00 0.02 0.02 95 1013.8
20260510062107 59 64 0.0 0.0 0.00 0.02 0.02 95 1013.9
20260510061941 59 64 0.0 0.0 0.00 0.02 0.02 95 1013.9
20260510061841 59 64 0.0 0.0 0.00 0.02 0.02 95 1013.9
20260510061746 59 64 0.0 0.0 0.00 0.02 0.02 95 1013.9
20260510061648 59 64 0.0 0.0 0.00 0.02 0.02 95 1014.0
20260510061548 59 64 0.0 0.0 0.00 0.02 0.02 95 1014.0
20260510061503 58 64 0.0 0.0 0.00 0.02 0.02 95 1013.6
20260510061450 59 64 0.0 0.0 0.00 0.02 0.02 95 1014.0
20260510061410 59 64 0.0 0.0 0.00 0.02 0.02 95 1014.0
20260510061248 59 64 0.0 0.0 0.00 0.02 0.02 95 1014.0
20260510061207 59 64 0.0 0.0 0.00 0.02 0.02 95 1014.0
20260510061049 59 64 0.0 0.0 0.00 0.02 0.02 95 1014.0
20260510061009 59 64 0.0 0.0 0.00 0.02 0.02 95 1014.0
20260510060849 59 64 0.0 0.0 0.00 0.02 0.02 95 1014.0
20260510060749 59 64 0.0 0.0 0.00 0.02 0.02 95 1014.0
20260510060650 59 64 0.0 0.0 0.00 0.02 0.02 95 1014.0
20260510060611 59 64 0.0 0.0 0.00 0.02 0.02 95 1014.1
20260510060453 59 64 0.0 0.0 0.00 0.02 0.02 95 1014.1
20260510060354 59 64 0.0 0.0 0.00 0.02 0.02 95 1014.1
20260510060259 59 64 0.0 0.0 0.00 0.02 0.02 95 1014.1
20260510060225 59 64 0.0 0.0 0.00 0.02 0.02 95 1014.1
20260510060011 59 64 0.0 0.0 0.00 0.02 0.02 95 1013.6
20260510055953 59 64 0.0 0.0 0.00 0.02 0.02 95 1014.1
20260510055854 59 64 0.0 0.0 0.00 0.02 0.02 95 1014.0
20260510055754 59 64 0.0 0.0 0.00 0.02 0.02 95 1014.0
20260510055658 59 64 0.0 0.0 0.00 0.02 0.02 95 1013.9
20260510055554 59 64 0.0 0.0 0.00 0.02 0.02 95 1013.9
20260510055512 59 64 0.0 0.0 0.00 0.02 0.02 95 1013.9
20260510055411 59 64 0.0 0.0 0.00 0.02 0.02 95 1013.9
20260510055311 59 64 0.0 0.0 0.00 0.02 0.02 95 1013.8
20260510055145 59 64 0.0 0.0 0.00 0.02 0.02 95 1013.8
20260510055045 59 64 0.0 0.0 0.00 0.02 0.02 95 1013.8
20260510054946 59 64 0.0 0.0 0.00 0.02 0.02 95 1013.8
20260510054906 59 64 0.0 0.0 0.00 0.02 0.02 95 1013.8
20260510054749 59 64 0.0 0.0 0.00 0.02 0.02 95 1013.9
20260510054650 59 64 0.0 0.0 0.00 0.02 0.02 95 1013.9
20260510054610 59 64 0.0 0.0 0.00 0.02 0.02 95 1013.4
20260510054549 59 64 0.0 0.0 0.00 0.02 0.02 95 1013.9
20260510054451 59 64 0.0 0.0 0.00 0.02 0.02 95 1013.9
20260510054351 59 64 0.0 0.0 0.00 0.02 0.02 95 1013.9
20260510054251 59 64 0.0 0.0 0.00 0.02 0.02 95 1013.9
20260510054155 59 64 0.0 0.0 0.00 0.02 0.02 95 1013.9
20260510054112 59 64 0.0 0.0 0.00 0.02 0.02 95 1014.0
20260510053948 59 64 0.0 0.0 0.00 0.02 0.02 95 1014.0
20260510053847 59 64 0.0 0.0 0.00 0.02 0.02 95 1014.0
20260510053748 59 64 0.0 0.0 0.00 0.02 0.02 95 1014.0
20260510053648 59 64 0.0 0.0 0.00 0.02 0.02 95 1013.9
20260510053543 59 64 0.0 0.0 0.00 0.02 0.02 95 1013.9
20260510053500 59 64 0.0 0.0 0.00 0.02 0.02 95 1013.9
20260510053403 59 64 0.0 0.0 0.00 0.02 0.02 95 1013.9
20260510053320 59 64 0.0 0.0 0.00 0.02 0.02 95 1013.9
20260510053157 59 64 0.0 0.0 0.00 0.02 0.02 95 1013.8
20260510053132 59 64 0.0 0.0 0.00 0.02 0.02 95 1013.4
20260510053118 59 64 0.0 0.0 0.00 0.02 0.02 95 1013.8
20260510052956 59 64 0.0 0.0 0.00 0.02 0.02 95 1013.8
20260510052853 59 64 0.0 0.0 0.00 0.02 0.02 95 1013.8
20260510052755 59 64 0.0 0.0 0.00 0.02 0.02 95 1013.7
20260510052655 60 64 0.0 0.0 0.00 0.02 0.02 95 1013.8
20260510052616 60 64 0.0 0.0 0.00 0.02 0.02 95 1013.8
20260510052451 60 64 0.0 0.0 0.00 0.02 0.02 95 1013.8
20260510052349 60 64 0.0 0.0 0.00 0.02 0.02 95 1013.8
20260510052249 59 64 0.0 0.0 0.00 0.02 0.02 95 1013.8
20260510052150 60 64 0.0 0.0 0.00 0.02 0.02 95 1013.8
20260510052049 60 64 0.0 0.0 0.00 0.02 0.02 95 1013.8
20260510051949 60 64 0.0 0.0 0.00 0.02 0.02 95 1013.9
20260510051854 60 64 0.0 0.0 0.00 0.02 0.02 95 1013.8
20260510051815 60 64 0.0 0.0 0.00 0.02 0.02 95 1013.8
20260510051649 60 64 0.0 0.0 0.00 0.02 0.02 95 1013.9
20260510051549 60 64 0.0 0.0 0.00 0.02 0.02 95 1013.9
20260510051449 60 64 0.0 0.0 0.00 0.02 0.02 95 1013.9
20260510051348 60 64 0.0 0.0 0.00 0.02 0.02 95 1014.0
20260510051248 60 64 0.0 0.0 0.00 0.02 0.02 95 1014.0
20260510051152 60 64 0.0 0.0 0.00 0.02 0.02 95 1014.1
20260510051046 60 64 0.0 0.0 0.00 0.02 0.02 95 1014.0
20260510050946 60 64 0.0 0.0 0.00 0.02 0.02 95 1014.1
20260510050846 60 64 0.0 0.0 0.00 0.02 0.02 95 1014.0
20260510050748 60 64 0.0 0.0 0.00 0.02 0.02 95 1014.0
20260510050645 60 64 0.0 0.0 0.00 0.02 0.02 95 1014.0
20260510050547 60 64 0.0 0.0 0.00 0.02 0.02 95 1014.0
20260510050449 60 64 0.0 0.0 0.00 0.02 0.02 95 1013.9
20260510050406 60 64 0.0 0.0 0.00 0.02 0.02 95 1014.0
20260510050251 60 64 0.0 0.0 0.00 0.02 0.02 95 1014.1
20260510045956 60 64 0.0 0.0 0.00 0.02 0.02 95 1014.1
20260510045857 60 64 0.0 0.0 0.00 0.02 0.02 95 1014.2
20260510045742 60 64 0.0 0.0 0.00 0.02 0.02 95 1014.1
20260510045703 60 64 0.0 0.0 0.00 0.02 0.02 95 1014.1
20260510045542 60 64 0.0 0.0 0.00 0.02 0.02 95 1014.1
20260510045504 60 64 0.0 0.0 0.00 0.02 0.02 95 1014.1
20260510045342 60 64 0.0 0.0 0.00 0.02 0.02 95 1014.1
20260510045243 60 64 0.0 0.0 0.00 0.02 0.02 95 1014.1
20260510045143 60 64 0.0 0.0 0.00 0.02 0.02 95 1014.1
20260510045044 60 64 0.0 0.0 0.00 0.02 0.02 95 1014.1
20260510044948 60 64 0.0 0.0 0.00 0.02 0.02 95 1014.1
20260510044849 60 64 0.0 0.0 0.00 0.02 0.02 95 1014.1
20260510044753 60 64 0.0 0.0 0.00 0.02 0.02 95 1014.1
20260510044714 60 64 0.0 0.0 0.00 0.02 0.02 95 1014.0
20260510044620 59 64 0.0 0.0 0.00 0.02 0.02 95 1013.6
20260510044554 60 64 0.0 0.0 0.00 0.02 0.02 95 1014.0
20260510044516 60 64 0.0 0.0 0.00 0.02 0.02 95 1014.0
20260510044356 60 64 0.0 0.0 0.00 0.02 0.02 95 1014.0
20260510044241 60 64 0.0 0.0 0.00 0.02 0.02 95 1014.0
20260510044142 60 64 0.0 0.0 0.00 0.02 0.02 95 1014.1
20260510044042 60 64 0.0 0.0 0.00 0.02 0.02 95 1014.1
20260510043942 60 64 0.0 0.0 0.00 0.02 0.02 95 1014.1
20260510043843 60 64 0.0 0.0 0.00 0.02 0.02 95 1014.1
20260510043741 60 64 0.0 0.0 0.00 0.02 0.02 95 1014.1
20260510043647 60 64 0.0 0.0 0.00 0.02 0.02 95 1014.1
20260510043546 60 64 0.0 0.0 0.00 0.02 0.02 95 1014.1
20260510043447 60 64 0.0 0.0 0.00 0.02 0.02 95 1014.1
20260510043408 60 64 0.0 0.0 0.00 0.02 0.02 95 1014.2
20260510043249 60 64 0.0 0.0 0.00 0.02 0.02 95 1014.1
20260510043149 60 64 0.0 0.0 0.00 0.02 0.02 95 1014.1
20260510043051 60 64 0.0 0.0 0.00 0.02 0.02 95 1014.1
20260510043024 60 64 0.0 0.0 0.00 0.02 0.02 95 1013.7
20260510042955 60 64 0.0 0.0 0.00 0.02 0.02 95 1014.2
20260510042855 60 64 0.0 0.0 0.00 0.02 0.02 95 1014.2
20260510042755 60 64 0.0 0.0 0.00 0.02 0.02 95 1014.2
20260510042654 60 64 0.0 0.0 0.00 0.02 0.02 95 1014.2
20260510042615 60 64 0.0 0.0 0.00 0.02 0.02 95 1014.2
20260510042455 60 64 0.0 0.0 0.00 0.02 0.02 95 1014.2
20260510042357 60 64 0.0 0.0 0.00 0.02 0.02 95 1014.2
20260510042257 60 64 0.0 0.0 0.00 0.02 0.02 95 1014.2
20260510042200 60 64 0.0 0.0 0.00 0.02 0.02 95 1014.2
20260510042100 60 64 0.0 0.0 0.00 0.02 0.02 95 1014.3
20260510042021 60 64 0.0 0.0 0.00 0.02 0.02 95 1014.2
20260510041920 60 64 0.0 0.0 0.00 0.02 0.02 95 1014.2
20260510041818 60 64 0.0 0.0 0.00 0.02 0.02 94 1014.1
20260510041657 60 64 0.0 0.0 0.00 0.02 0.02 94 1014.1
20260510041557 60 64 0.0 0.0 0.00 0.02 0.02 94 1014.1
20260510041534 60 64 0.0 0.0 0.00 0.02 0.02 94 1013.7
20260510041443 60 64 0.0 0.0 0.00 0.02 0.02 94 1014.1
20260510041343 60 64 0.0 0.0 0.00 0.02 0.02 94 1014.2
20260510041244 60 64 0.0 0.0 0.00 0.02 0.02 94 1014.2
20260510041145 60 64 0.0 0.0 0.00 0.02 0.02 94 1014.2
20260510041047 60 64 0.0 0.0 0.00 0.02 0.02 94 1014.3
20260510040948 60 64 0.0 0.0 0.00 0.02 0.02 94 1014.3
20260510040848 60 64 0.0 0.0 0.00 0.02 0.02 94 1014.3
20260510040752 60 64 0.0 0.0 0.00 0.02 0.02 94 1014.3
20260510040653 60 64 0.0 0.0 0.00 0.02 0.02 94 1014.3
20260510040554 60 64 0.0 0.0 0.00 0.02 0.02 94 1014.2
20260510040455 60 64 0.0 0.0 0.00 0.02 0.02 94 1014.2
20260510040356 60 64 0.0 0.0 0.00 0.02 0.02 94 1014.2
20260510040300 60 64 0.0 0.0 0.00 0.02 0.02 94 1014.2
20260510040231 60 64 0.0 0.0 0.00 0.02 0.02 94 1014.1
20260510040018 60 64 0.0 0.0 0.00 0.02 0.02 94 1014.2
20260510035849 60 64 0.0 0.0 0.00 0.02 0.02 94 1014.2
20260510035750 60 64 0.0 0.0 0.00 0.02 0.02 94 1014.3
20260510035651 60 64 0.0 0.0 0.00 0.02 0.02 94 1014.3
20260510035552 60 64 0.0 0.0 0.00 0.02 0.02 94 1014.3
20260510035456 60 64 0.0 0.0 0.00 0.02 0.02 94 1014.3
20260510035357 60 64 0.0 0.0 0.00 0.02 0.02 94 1014.3
20260510035257 60 64 0.0 0.0 0.00 0.02 0.02 94 1014.3
20260510035157 60 64 0.0 0.0 0.00 0.02 0.02 94 1014.4
20260510035058 60 64 0.0 0.0 0.00 0.02 0.02 94 1014.4
20260510034959 60 64 0.0 0.0 0.00 0.02 0.02 94 1014.5
20260510034843 60 64 0.0 0.0 0.00 0.02 0.02 94 1014.4
20260510034803 60 64 0.0 0.0 0.00 0.02 0.02 94 1014.4
20260510034701 60 64 0.0 0.0 0.00 0.02 0.02 94 1014.4
20260510034541 60 64 0.0 0.0 0.00 0.02 0.02 94 1014.5
20260510034520 60 64 0.0 0.0 0.00 0.02 0.02 94 1014.0
20260510034442 60 64 0.0 0.0 0.00 0.02 0.02 94 1014.5
20260510034342 61 64 0.0 0.0 0.00 0.02 0.02 94 1014.5
20260510034302 61 64 0.0 0.0 0.00 0.02 0.02 94 1014.5
20260510034147 61 64 0.0 0.0 0.00 0.02 0.02 94 1014.5
20260510034048 61 64 0.0 0.0 0.00 0.02 0.02 94 1014.5
20260510033951 61 64 0.0 0.0 0.00 0.02 0.02 94 1014.4
20260510033852 61 64 0.0 0.0 0.00 0.02 0.02 94 1014.4
20260510033755 61 64 0.0 0.0 0.00 0.02 0.02 94 1014.4
20260510033655 61 64 0.0 0.0 0.00 0.02 0.02 94 1014.4
20260510033542 61 64 0.0 0.0 0.00 0.02 0.02 94 1014.3
20260510033503 61 64 0.0 0.0 0.00 0.02 0.02 94 1014.3
20260510033343 61 64 0.0 0.0 0.00 0.02 0.02 94 1014.3
20260510033243 61 64 0.0 0.0 0.00 0.02 0.02 94 1014.3
20260510033206 61 64 0.0 0.0 0.00 0.02 0.02 94 1014.3
20260510033131 60 64 0.0 0.0 0.00 0.02 0.02 94 1013.9
20260510033045 61 64 0.0 0.0 0.00 0.02 0.02 94 1014.3
20260510033005 61 64 0.0 0.0 0.00 0.02 0.02 94 1014.3
20260510032846 61 64 0.0 0.0 0.00 0.02 0.02 94 1014.3
20260510032752 61 64 0.0 0.0 0.00 0.02 0.02 94 1014.3
20260510032651 61 64 0.0 0.0 0.00 0.02 0.02 94 1014.3
20260510032613 61 64 0.0 0.0 0.00 0.02 0.02 94 1014.3
20260510032452 61 64 0.0 0.0 0.00 0.02 0.02 94 1014.3
20260510032353 61 64 0.0 0.0 0.00 0.02 0.02 94 1014.3
20260510032254 61 64 0.0 0.0 0.00 0.02 0.02 94 1014.2
20260510032155 61 64 0.0 0.0 0.00 0.02 0.02 94 1014.3
20260510032058 61 64 0.0 0.0 0.00 0.02 0.02 94 1014.2
20260510031957 61 64 0.0 0.0 0.00 0.02 0.02 94 1014.2
20260510031858 61 64 0.0 0.0 0.00 0.02 0.02 94 1014.2
20260510031758 61 64 0.0 0.0 0.00 0.02 0.02 94 1014.2
20260510031659 61 64 0.0 0.0 0.00 0.02 0.02 94 1014.2
20260510031641 60 64 0.0 0.0 0.00 0.02 0.02 94 1013.8
20260510031600 61 64 0.0 0.0 0.00 0.02 0.02 94 1014.3
20260510031521 61 64 0.0 0.0 0.00 0.02 0.02 94 1014.3
20260510031344 61 64 0.0 0.0 0.00 0.02 0.02 94 1014.3
20260510031245 61 64 0.0 0.0 0.00 0.02 0.02 94 1014.3
20260510031145 61 64 0.0 0.0 0.00 0.02 0.02 94 1014.3
20260510031044 61 64 0.0 0.0 0.00 0.02 0.02 94 1014.3
20260510030945 61 64 0.0 0.0 0.00 0.02 0.02 94 1014.3
20260510030906 61 64 0.0 0.0 0.00 0.02 0.02 94 1014.2
20260510030746 61 64 0.0 0.0 0.00 0.02 0.02 94 1014.3
20260510030652 61 64 0.0 0.0 0.00 0.02 0.02 94 1014.3
20260510030551 61 64 0.0 0.0 0.00 0.02 0.02 94 1014.2
20260510030452 61 64 0.0 0.0 0.00 0.02 0.02 93 1014.3
20260510030352 61 64 0.0 0.0 0.00 0.02 0.02 93 1014.3
20260510030253 61 64 0.0 0.0 0.00 0.02 0.02 93 1014.3
20260510030226 61 64 0.0 0.0 0.00 0.02 0.02 93 1014.3
20260510030019 61 64 0.0 0.0 0.00 0.02 0.02 93 1013.9
20260510025953 61 64 0.0 0.0 0.00 0.02 0.02 93 1014.3
20260510025853 61 64 0.0 0.0 0.00 0.02 0.02 93 1014.3
20260510025754 61 64 0.0 0.0 0.00 0.02 0.02 93 1014.3
20260510025656 61 64 0.0 0.0 0.00 0.02 0.02 93 1014.3
20260510025615 61 64 0.0 0.0 0.00 0.02 0.02 93 1014.3
20260510025454 61 64 0.0 0.0 0.00 0.02 0.02 93 1014.3
20260510025359 61 64 0.0 0.0 0.00 0.02 0.02 93 1014.3
20260510025240 61 64 0.0 0.0 0.00 0.02 0.02 93 1014.3
20260510025141 61 64 0.0 0.0 0.00 0.02 0.02 93 1014.3
20260510025103 61 64 0.0 0.0 0.00 0.02 0.02 93 1014.3
20260510024942 61 64 0.0 0.0 0.00 0.02 0.02 93 1014.3
20260510024843 61 64 0.0 0.0 0.00 0.02 0.02 93 1014.3
20260510024802 61 64 0.0 0.0 0.00 0.02 0.02 93 1014.3
20260510024706 61 64 0.0 0.0 0.00 0.02 0.02 93 1014.2
20260510024602 61 64 0.0 0.0 0.00 0.02 0.02 93 1013.8
20260510024546 61 64 0.0 0.0 0.00 0.02 0.02 93 1014.2
20260510024507 62 64 0.0 0.0 0.00 0.02 0.02 93 1014.2
20260510024348 62 64 0.0 0.0 0.00 0.02 0.02 93 1014.2
20260510024248 62 64 0.0 0.0 0.00 0.02 0.02 93 1014.2
20260510024209 62 64 0.0 0.0 0.00 0.02 0.02 93 1014.2
20260510024107 62 64 0.0 0.0 0.00 0.02 0.02 93 1014.2
20260510023948 62 64 0.0 0.0 0.00 0.02 0.02 93 1014.3
20260510023852 62 64 0.0 0.0 0.00 0.02 0.02 93 1014.3
20260510023813 62 64 0.0 0.0 0.00 0.02 0.02 93 1014.3
20260510023653 62 64 0.0 0.0 0.00 0.02 0.02 93 1014.2
20260510023554 62 64 0.0 0.0 0.00 0.02 0.02 93 1014.2
20260510023515 62 64 0.0 0.0 0.00 0.02 0.02 93 1014.2
20260510023354 62 64 0.0 0.0 0.00 0.02 0.02 93 1014.2
20260510023255 62 64 0.0 0.0 0.00 0.02 0.02 93 1014.2
20260510023217 62 64 0.0 0.0 0.00 0.02 0.02 93 1014.1
20260510023142 61 64 0.0 0.0 0.00 0.02 0.02 93 1013.6
20260510023116 62 64 0.0 0.0 0.00 0.02 0.02 93 1014.1
20260510023020 62 64 0.0 0.0 0.00 0.02 0.02 93 1014.1
20260510022859 62 64 0.0 0.0 0.00 0.02 0.02 93 1014.1
20260510022740 62 64 0.0 0.0 0.00 0.02 0.02 93 1014.0
20260510022641 62 64 0.0 0.0 0.00 0.02 0.02 93 1014.0
20260510022602 62 64 0.0 0.0 0.00 0.02 0.02 93 1014.0
20260510022442 62 64 0.0 0.0 0.00 0.02 0.02 93 1014.0
20260510022404 62 64 0.0 0.0 0.00 0.02 0.02 92 1014.1
20260510022247 62 64 0.0 0.0 0.00 0.02 0.02 92 1014.1
20260510022148 62 64 0.0 0.0 0.00 0.02 0.02 92 1014.0
20260510022049 62 64 0.0 0.0 0.00 0.02 0.02 92 1014.0
20260510022010 62 64 0.0 0.0 0.00 0.02 0.02 92 1014.0
20260510021911 62 64 0.0 0.0 0.00 0.02 0.02 92 1014.1
20260510021751 62 64 0.0 0.0 0.00 0.02 0.02 92 1014.1
20260510021710 62 64 0.0 0.0 0.00 0.02 0.02 92 1014.1
20260510021606 62 64 0.0 0.0 0.00 0.02 0.02 92 1013.6
20260510021549 62 64 0.0 0.0 0.00 0.02 0.02 92 1014.1
20260510021453 62 64 0.0 0.0 0.00 0.02 0.02 92 1014.2
20260510021353 62 64 0.0 0.0 0.00 0.02 0.02 92 1014.1
20260510021254 62 64 0.0 0.0 0.00 0.02 0.02 92 1014.1
20260510021155 62 64 0.0 0.0 0.00 0.02 0.02 92 1014.1
20260510021056 62 64 0.0 0.0 0.00 0.02 0.02 92 1014.1
20260510020957 62 64 0.0 0.0 0.00 0.02 0.02 92 1014.1
20260510020842 62 64 0.0 0.0 0.00 0.02 0.02 92 1014.1
20260510020743 62 64 0.0 0.0 0.00 0.02 0.02 92 1014.1
20260510020705 62 64 0.0 0.0 0.00 0.02 0.02 92 1014.0
20260510020544 62 64 0.0 0.0 0.00 0.02 0.02 92 1014.1
20260510020505 62 64 0.0 0.0 0.00 0.02 0.02 92 1014.0
20260510020344 62 64 0.0 0.0 0.00 0.02 0.02 92 1014.0
20260510020245 62 64 0.0 0.0 0.00 0.02 0.02 92 1014.0
20260510020218 62 64 0.0 0.0 0.00 0.02 0.02 92 1014.0
20260510015946 63 64 0.0 0.0 0.00 0.02 0.02 92 1013.9
20260510015905 63 64 0.0 0.0 0.00 0.02 0.02 92 1013.9
20260510015743 63 64 0.0 0.0 0.00 0.02 0.02 92 1013.9
20260510015643 63 64 0.0 0.0 0.00 0.02 0.02 92 1013.9
20260510015544 63 64 0.0 0.0 0.00 0.02 0.02 92 1013.9
20260510015449 63 64 0.0 0.0 0.00 0.02 0.02 92 1013.8
20260510015350 63 64 0.0 0.0 0.00 0.02 0.02 92 1013.8
20260510015251 63 64 0.0 0.0 0.00 0.02 0.02 91 1013.8
20260510015211 63 64 0.0 0.0 0.00 0.02 0.02 91 1013.7
20260510015049 63 64 0.0 0.0 0.00 0.02 0.02 91 1013.7
20260510014950 63 64 0.0 0.0 0.00 0.02 0.02 91 1013.7
20260510014851 63 64 0.0 0.0 0.00 0.02 0.02 91 1013.7
20260510014756 63 64 0.0 0.0 0.00 0.02 0.02 91 1013.7
20260510014657 63 64 0.0 0.0 0.00 0.02 0.02 92 1013.7
20260510014618 62 64 0.0 0.0 0.00 0.02 0.02 92 1013.2
20260510014558 63 64 0.0 0.0 0.00 0.02 0.02 92 1013.7
20260510014519 63 64 0.0 0.0 0.00 0.02 0.02 92 1013.7
20260510014358 63 64 0.0 0.0 0.00 0.02 0.02 92 1013.7
20260510014300 63 64 0.0 0.0 0.00 0.02 0.02 92 1013.6
20260510014159 63 64 0.0 0.0 0.00 0.02 0.02 91 1013.6
20260510014044 63 64 0.0 0.0 0.00 0.02 0.02 91 1013.6
20260510013945 63 64 0.0 0.0 0.00 0.02 0.02 91 1013.7
20260510013846 63 64 0.0 0.0 0.00 0.02 0.02 91 1013.6
20260510013747 63 64 0.0 0.0 0.00 0.02 0.02 91 1013.6
20260510013648 63 64 0.0 0.0 0.00 0.02 0.02 91 1013.6
20260510013548 63 64 0.0 0.0 0.00 0.02 0.02 91 1013.6
20260510013451 63 64 0.0 0.0 0.00 0.02 0.02 91 1013.5
20260510013413 63 64 0.0 0.0 0.00 0.02 0.02 91 1013.5
20260510013253 63 64 0.0 0.0 0.00 0.02 0.02 91 1013.5
20260510013152 63 64 0.0 0.0 0.00 0.02 0.02 91 1013.5
20260510013053 63 64 0.0 0.0 0.00 0.02 0.02 91 1013.5
20260510013024 63 64 0.0 0.0 0.00 0.02 0.02 91 1013.0
20260510012954 63 64 0.0 0.0 0.00 0.02 0.02 91 1013.4
20260510012854 64 64 0.0 0.0 0.00 0.02 0.02 91 1013.4
20260510012758 64 64 0.0 0.0 0.00 0.02 0.02 90 1013.4
20260510012658 64 64 0.0 0.0 0.00 0.02 0.02 90 1013.4
20260510012559 64 64 0.0 0.0 0.00 0.02 0.02 90 1013.4
20260510012459 64 64 0.0 0.0 0.00 0.02 0.02 90 1013.3
20260510012358 64 64 0.0 0.0 0.00 0.02 0.02 90 1013.3
20260510012259 64 64 0.0 0.0 0.00 0.02 0.02 90 1013.2
20260510012143 64 64 0.0 0.0 0.00 0.02 0.02 89 1013.2
20260510012044 64 64 0.0 0.0 0.00 0.02 0.02 89 1013.3
20260510011945 64 64 0.0 0.0 0.00 0.02 0.02 89 1013.2
20260510011844 64 64 0.0 0.0 0.00 0.02 0.02 89 1013.1
20260510011745 64 64 0.0 0.0 0.00 0.02 0.02 89 1013.1
20260510011646 64 64 0.0 0.0 0.00 0.02 0.02 89 1013.1
20260510011546 64 64 0.0 0.0 0.00 0.02 0.02 89 1013.1
20260510011533 64 64 0.0 0.0 0.00 0.02 0.02 89 1012.7
20260510011511 64 64 0.0 0.0 0.00 0.02 0.02 89 1013.1
20260510011351 64 64 0.0 0.0 0.00 0.02 0.02 89 1013.2
20260510011251 64 64 0.0 0.0 0.00 0.02 0.02 89 1013.2
20260510011152 64 64 0.0 0.0 0.00 0.02 0.02 89 1013.2
20260510011053 64 64 0.0 0.0 0.00 0.02 0.02 89 1013.2
20260510010953 64 64 0.0 0.0 0.00 0.02 0.02 89 1013.2
20260510010913 65 64 0.0 0.0 0.00 0.02 0.02 89 1013.2
20260510010753 65 64 0.0 0.0 0.00 0.02 0.02 89 1013.2
20260510010658 65 64 0.0 0.0 0.00 0.02 0.02 89 1013.1
20260510010559 65 64 0.0 0.0 0.00 0.02 0.02 89 1013.1
20260510010458 65 64 0.0 0.0 0.00 0.02 0.02 88 1013.1
20260510010357 65 64 0.0 0.0 0.00 0.02 0.02 88 1013.1
20260510010318 65 64 0.0 0.0 0.00 0.02 0.02 88 1013.2
20260510010224 65 64 0.0 0.0 0.00 0.02 0.02 88 1013.2
20260510010014 65 64 0.0 0.0 0.00 0.02 0.02 88 1012.6
20260510005955 65 64 0.0 0.0 0.00 0.02 0.02 88 1013.0
20260510005856 65 64 0.0 0.0 0.00 0.02 0.02 88 1013.0
20260510005756 65 64 0.0 0.0 0.00 0.02 0.02 89 1013.0
20260510005657 65 64 0.0 0.0 0.00 0.02 0.02 89 1013.1
20260510005618 65 64 0.0 0.0 0.00 0.02 0.02 89 1013.0
20260510005518 65 64 0.0 0.0 0.00 0.02 0.02 88 1013.0
20260510005358 65 64 0.0 0.0 0.00 0.02 0.02 88 1013.0
20260510005244 65 64 0.0 0.0 0.00 0.02 0.02 88 1012.9
20260510005143 65 64 0.0 0.0 0.00 0.02 0.02 88 1012.9
20260510005044 66 64 0.0 0.0 0.00 0.02 0.02 88 1012.8
20260510005005 66 64 0.0 0.0 0.00 0.02 0.02 88 1012.7
20260510004903 66 64 0.0 0.0 0.00 0.02 0.02 88 1012.7
20260510004743 66 64 0.0 0.0 0.00 0.02 0.02 88 1012.7
20260510004644 66 64 0.0 0.0 0.00 0.02 0.02 88 1012.6
20260510004604 65 64 0.0 0.0 0.00 0.02 0.02 88 1012.1
20260510004548 66 64 0.0 0.0 0.00 0.02 0.02 88 1012.6
20260510004449 66 64 0.0 0.0 0.00 0.02 0.02 88 1012.6
20260510004410 66 64 0.0 0.0 0.00 0.02 0.02 88 1012.6
20260510004249 66 64 0.0 0.0 0.00 0.02 0.02 88 1012.5
20260510004150 66 64 0.0 0.0 0.00 0.02 0.02 88 1012.6
20260510004051 66 64 0.0 0.0 0.00 0.02 0.02 88 1012.5
20260510004012 66 64 0.0 0.0 0.00 0.02 0.02 88 1012.4
20260510003852 66 64 0.0 0.0 0.00 0.02 0.02 88 1012.4
20260510003756 66 64 0.0 0.0 0.00 0.02 0.02 87 1012.4
20260510003657 66 64 0.0 0.0 0.00 0.02 0.02 88 1012.4
20260510003558 66 64 0.0 0.0 0.00 0.02 0.02 88 1012.3
20260510003459 66 64 0.0 0.0 0.00 0.02 0.02 88 1012.3
20260510003340 66 64 0.0 0.0 0.00 0.02 0.02 88 1012.3
20260510003241 66 64 0.0 0.0 0.00 0.02 0.02 87 1012.3
20260510003146 66 64 0.0 0.0 0.00 0.02 0.02 87 1012.3
20260510003122 66 64 0.0 0.0 0.00 0.02 0.02 87 1011.9
20260510003107 66 64 0.0 0.0 0.00 0.02 0.02 87 1012.3
20260510002946 66 64 0.0 0.0 0.00 0.02 0.02 88 1012.3
20260510002847 66 64 0.0 0.0 0.00 0.02 0.02 88 1012.2
20260510002746 66 64 0.0 0.0 0.00 0.02 0.02 88 1012.2
20260510002647 66 63 0.0 0.0 0.00 0.02 0.02 88 1012.3
20260510002548 66 63 0.0 0.0 0.00 0.02 0.02 88 1012.3
20260510002453 66 63 0.0 0.0 0.00 0.02 0.02 88 1012.2
20260510002413 66 63 0.0 0.0 0.00 0.02 0.02 88 1012.2
20260510002254 66 63 0.0 0.0 0.00 0.02 0.02 88 1012.2
20260510002153 66 63 0.0 0.0 0.00 0.02 0.02 88 1012.2
20260510002114 66 63 0.0 0.0 0.00 0.02 0.02 88 1012.2
20260510002014 66 63 0.0 0.0 0.00 0.02 0.02 88 1012.2
20260510001854 66 63 0.0 0.0 0.00 0.02 0.02 88 1012.2
20260510001756 66 63 0.0 0.0 0.00 0.02 0.02 88 1012.2
20260510001719 66 63 0.0 0.0 0.00 0.02 0.02 88 1012.2
20260510001622 66 63 0.0 0.0 0.00 0.02 0.02 88 1011.8
20260510001558 66 63 0.0 0.0 0.00 0.02 0.02 88 1012.3
20260510001454 67 63 0.0 0.0 0.00 0.02 0.02 88 1012.3
20260510001415 67 63 0.0 0.0 0.00 0.02 0.02 88 1012.3
20260510001255 67 63 0.0 0.0 0.00 0.02 0.02 87 1012.3
20260510001155 67 63 0.0 0.0 0.00 0.02 0.02 87 1012.3
20260510001056 67 63 0.0 0.0 0.00 0.02 0.02 87 1012.3
20260510000941 67 63 0.0 0.0 0.00 0.02 0.02 87 1012.2
20260510000902 67 63 0.0 0.0 0.00 0.02 0.02 87 1012.2
20260510000740 67 63 0.0 0.0 0.00 0.02 0.02 87 1012.2
20260510000641 67 63 0.0 0.0 0.00 0.02 0.02 87 1012.2
20260510000542 67 63 0.0 0.0 0.00 0.02 0.02 87 1012.2
20260510000443 67 63 0.0 0.0 0.00 0.02 0.02 87 1012.2
20260510000343 67 59 0.0 0.0 0.00 0.02 0.02 87 1012.2
20260510000306 67 59 0.0 0.0 0.00 0.02 0.02 87 1012.2
20260510000235 67 59 0.0 0.0 0.00 0.02 0.02 87 1012.2
20260510000002 67 59 0.0 0.0 0.00 0.02 0.02 87 1011.7
20260509235942 67 59 0.0 0.0 0.00 0.02 0.02 87 1012.1
20260509235843 67 59 0.0 0.0 0.00 0.02 0.02 87 1012.1
20260509235744 67 59 0.0 0.0 0.00 0.02 0.02 86 1012.1
20260509235644 67 59 0.0 0.0 0.00 0.02 0.02 86 1012.0
20260509235549 67 59 0.0 0.0 0.00 0.02 0.02 86 1012.0
20260509235509 67 59 0.0 0.0 0.00 0.02 0.02 86 1012.0
20260509235347 67 59 0.0 0.0 0.00 0.02 0.02 86 1012.0
20260509235308 68 59 0.0 0.0 0.00 0.02 0.02 86 1012.0
20260509235208 68 59 0.0 0.0 0.00 0.02 0.02 85 1012.0
20260509235047 68 59 0.0 0.0 0.00 0.02 0.02 85 1012.0
20260509234947 68 59 0.0 0.0 0.00 0.02 0.02 85 1012.0
20260509234848 68 59 0.0 0.0 0.00 0.02 0.02 85 1012.0
20260509234753 68 59 0.0 0.0 0.00 0.02 0.02 85 1012.0
20260509234655 68 59 0.0 0.0 0.00 0.02 0.02 85 1012.0
20260509234608 67 59 0.0 0.0 0.00 0.02 0.02 85 1011.5
20260509234554 68 59 0.0 0.0 0.00 0.02 0.02 85 1012.0
20260509234514 68 59 0.0 0.0 0.00 0.02 0.02 85 1011.9
20260509234354 68 59 0.0 0.0 0.00 0.02 0.02 85 1011.9
20260509234255 68 59 0.0 0.0 0.00 0.02 0.02 84 1011.9
20260509234155 68 59 0.0 0.0 0.00 0.02 0.02 84 1011.9
20260509234119 68 59 0.0 0.0 0.00 0.02 0.02 84 1011.9
20260509233957 68 59 0.0 0.0 0.00 0.02 0.02 84 1011.9
20260509233859 68 59 0.0 0.0 0.00 0.02 0.02 84 1011.9
20260509233800 68 163 0.0 0.0 0.00 0.02 0.02 84 1011.9
20260509233721 68 163 0.0 0.0 0.00 0.02 0.02 84 1011.9
20260509233600 68 163 0.0 0.0 0.00 0.02 0.02 84 1011.9
20260509233459 68 163 0.0 0.0 0.00 0.02 0.02 84 1011.9
20260509233343 69 163 0.0 0.0 0.00 0.02 0.02 84 1011.9
20260509233244 69 161 0.0 0.0 0.00 0.02 0.02 84 1012.0
20260509233205 69 161 0.0 0.0 0.00 0.02 0.02 84 1012.0
20260509233106 68 161 0.0 0.0 0.00 0.02 0.02 84 1011.5
20260509233043 69 161 0.0 0.0 0.00 0.02 0.02 84 1012.0
20260509232944 69 161 0.0 0.0 0.00 0.02 0.02 84 1012.0
20260509232844 69 161 0.0 0.0 0.00 0.02 0.02 83 1012.0
20260509232745 69 161 0.0 0.0 0.00 0.02 0.02 83 1012.0
20260509232646 69 161 0.0 0.0 0.00 0.02 0.02 83 1012.0
20260509232612 69 161 0.0 0.0 0.00 0.02 0.02 82 1012.0
20260509232451 69 161 0.0 0.0 0.00 0.02 0.02 82 1012.0
20260509232352 69 161 0.0 0.0 0.00 0.02 0.02 82 1012.1
20260509232253 69 161 0.0 0.0 0.00 0.02 0.02 82 1012.1
20260509232214 69 161 0.0 0.0 0.00 0.02 0.02 82 1012.1
20260509232113 69 161 0.0 0.0 0.00 0.02 0.02 81 1012.1
20260509231952 69 161 0.0 0.0 0.00 0.02 0.02 81 1012.0
20260509231852 69 161 0.0 0.0 0.00 0.02 0.02 81 1012.0
20260509231755 69 161 0.0 0.0 0.00 0.02 0.02 81 1011.9
20260509231656 69 161 0.0 0.0 0.00 0.02 0.02 81 1012.0
20260509231634 69 161 0.0 0.0 0.00 0.02 0.02 81 1011.5
20260509231556 70 161 0.0 0.0 0.00 0.02 0.02 81 1012.0
20260509231517 70 161 0.0 0.0 0.00 0.02 0.02 81 1012.0
20260509231416 70 161 0.0 0.0 0.00 0.02 0.02 81 1012.1
20260509231256 70 161 0.0 0.0 0.00 0.02 0.02 81 1012.0
20260509231157 70 161 0.0 0.0 0.00 0.02 0.02 81 1011.9
20260509231043 70 161 0.0 0.0 0.00 0.02 0.02 81 1011.9
20260509230945 70 161 0.0 0.0 0.00 0.02 0.02 81 1011.9
20260509230846 70 161 0.0 0.0 0.00 0.02 0.02 81 1011.9
20260509230747 70 161 0.0 0.0 0.00 0.02 0.02 80 1011.9
20260509230647 70 161 0.0 0.0 0.00 0.02 0.02 81 1011.9
20260509230613 70 161 0.0 0.0 0.00 0.02 0.02 80 1011.9
20260509230344 70 161 0.0 0.0 0.00 0.02 0.02 79 1011.9
20260509230250 70 161 0.0 0.0 0.00 0.02 0.02 79 1011.9
20260509230215 70 161 0.0 0.0 0.00 0.02 0.02 79 1011.8
20260509230005 70 180 0.0 0.0 0.00 0.02 0.02 80 1011.8
20260509225845 70 182 0.0 0.0 0.00 0.02 0.02 79 1011.8
20260509225746 70 182 0.0 0.0 0.00 0.02 0.02 79 1011.9